           , 1.998,  2.145,  2.293,  2.441,  2.589,  2.736,  2.884,  3.032,  3.179,  3.327,  3.475,  3.623,  3.770,  3.918,  4.066,  4.213,  4.361,  4.509,  4.657,  4.804,  4.952,  5.100,  5.248,  5.395,  5.543,  5.691,  5.838,  5.986,  6.134,  6.282,  6.429,  6.577,  6.725,  6.872,  7.020,  7.168,  7.316,  7.463,  7.611,  7.759,  7.907,  8.054,  8.202,  8.350,  8.497,  8.645,  8.793,  8.941,  9.088,  9.236,  9.384,  9.531,  9.679,  9.827,  9.975, 10.122, 10.270, 10.418, 10.565, 10.713, 10.861, 11.009, 11.156, 11.304, 11.452, 11.600, 11.747, 11.895, 12.043, 12.190, 12.338, 12.486, 12.634, 12.781, 12.929, 13.077, 13.224, 13.372, 13.520, 13.668, 13.815, 13.963, 14.111, 14.259, 14.406, 14.554, 14.702, 14.849, 14.997, 15.145, 15.293, 15.440, 15.588, 15.736, 15.883, 16.031, 16.179, 16.327, 16.474, 16.622, 16.770, 16.917, 17.065, 17.213, 17.361, 17.508, 17.656, 17.804, 17.952, 18.099, 18.247, 18.395, 18.542, 18.690, 18.838, 18.986, 19.133, 19.281, 19.429, 19.576
2003/06/13 00:05,   12.3,   12.5,   11.8,   11.8,   11.8,   13.1,   13.8,   13.6,   14.6,   14.1,   13.6,   14.4,   15.2,   15.8,   14.5,   13.3,   12.7,   11.2,    9.5,    8.3,    7.6,    7.4,    7.4,    8.3,    9.3,    9.3,    9.1,    9.1,    9.7,   11.3,   12.2,   13.1,   12.5,   11.3,   11.8,   11.4,   11.7,   11.9,   11.5,   12.4,   13.5,   12.6,   13.8,   15.0,   16.9,   17.7,   17.9,   18.2,   18.4,   18.8,   19.1,   19.9,   19.6,   19.5,   18.4,   18.2,   18.2,   18.2,   17.8,   18.2,   18.8,   18.7,   18.7,   19.8,   20.5,   22.4,   24.5,   26.2,   27.3,   28.0,   29.1,   29.8,   29.5,   30.5,   30.2,   31.6,   31.8,   32.0,   31.1,   33.3,   35.7,   37.3,   39.5,   40.8,   38.3,   39.1,   34.5,   32.8,   29.7,   26.3,   23.9,   19.5,   18.8,   16.8,   14.5,   14.5,   14.1,   12.1,   12.6,   12.7,   14.5,   16.3,   15.6,   15.0,    8.6,    7.1,  999.0,    4.6,    4.7,    5.3,  999.0,  999.0,  999.0,  999.0,  999.0,  999.0,  999.0,  999.0,  999.0,  999.0
2003/06/13 00:15,   12.2,   12.1,   12.1,   11.9,   12.1,   12.1,   13.0,   14.3,   14.6,   14.6,   14.4,   14.3,   15.5,   16.1,   14.2,   13.1,   11.7,   10.7,    9.5,    8.3,    8.0,    7.0,    6.6,    7.4,    8.4,    9.0,    8.9,    9.6,   11.7,   13.0,   13.4,   13.7,   13.1,   13.3,   12.3,   12.1,   12.8,   13.1,   13.2,   13.7,   13.4,   12.9,   13.5,   14.0,   15.3,   16.1,   16.1,   16.3,   17.7,   18.8,   18.4,   19.1,   19.0,   19.1,   19.3,   18.6,   18.5,   17.9,   18.4,   18.5,   19.5,   19.6,   20.6,   22.7,   22.7,   23.2,   25.4,   26.4,   27.0,   26.6,   26.7,   27.1,   27.0,   27.2,   30.2,   29.4,   31.2,   31.8,   32.3,   32.5,   35.2,   37.4,   38.0,   37.8,   37.7,   40.6,   34.8,   30.4,   29.8,   25.4,   22.5,   20.2,   17.5,   17.6,   15.6,   14.2,   15.7,   13.8,  999.0,  999.0,   13.6,   15.9,   16.5,   14.1,    7.2,    6.4,    5.0,  999.0,    4.8,  999.0,    1.6,  999.0,  999.0,    2.0,  999.0,  999.0,    0.3,  999.0,  999.0,  999.0
2003/06/13 00:25,   11.7,   11.9,   11.8,   12.2,   12.4,   12.6,   12.8,   13.3,   13.6,   13.1,   13.6,   14.5,   15.3,   15.2,   15.8,   12.7,   11.5,   10.3,   10.0,    8.2,    6.3,    6.1,    6.3,    7.2,    7.7,    8.2,    9.1,   11.1,   12.4,   13.5,   13.6,   14.0,   13.1,   13.3,   13.5,   10.8,   12.0,   13.3,   13.2,   14.0,   14.1,   14.8,   16.0,   17.1,   17.0,   17.5,   18.2,   18.1,   17.9,   17.2,   16.9,   18.2,   18.5,   19.1,   19.1,   19.3,   19.3,   19.9,   19.9,   21.0,   19.4,   21.0,   22.6,   22.7,   22.1,   24.0,   24.6,   26.7,   28.4,   25.9,   26.5,   25.9,   30.2,   29.1,   29.9,   30.4,   30.7,   30.9,   31.0,   31.8,   35.0,   35.6,   35.7,   35.3,   37.4,   41.2,   32.3,   32.9,   27.9,   26.9,   24.0,   19.8,   17.3,   16.6,   16.4,   13.9,   15.5,   13.3,   12.7,  999.0,   14.4,   15.0,   15.4,   11.6,    6.5,    5.5,    5.5,    4.3,  999.0,    1.1,  999.0,   -2.4,  999.0,  999.0,  999.0,  999.0,  999.0,  999.0,  999.0,  999.0
2003/06/13 00:35,   12.0,   12.7,   12.3,   12.4,   13.0,   13.7,   14.1,   15.2,   14.9,   13.8,   14.8,   15.5,   15.7,   15.4,   14.4,   13.0,   12.8,   11.3,   11.0,    9.0,    8.3,    7.5,    7.7,    8.2,    9.2,    9.9,   10.8,   12.4,   13.5,   13.9,   14.3,   14.1,   14.0,   14.1,   14.5,   14.2,   12.3,   11.6,   11.4,   11.5,   12.2,   13.8,   15.4,   15.7,   16.3,   16.6,   17.7,   18.4,   19.7,   21.2,   20.2,   19.8,   19.4,   19.7,   20.0,   19.9,   19.0,   19.0,   19.5,   20.5,   21.0,   21.3,   20.8,   22.5,   22.2,   22.3,   23.8,   23.5,   23.5,   24.1,   25.4,   25.9,   27.2,   29.9,   29.5,   31.2,   31.2,   30.9,   31.4,   32.0,   34.4,   35.8,  999.0,   36.6,   36.2,   39.3,   34.1,   33.0,   30.5,   26.6,   23.3,   20.2,   17.2,   15.5,   16.2,   13.8,   15.5,   14.4,   14.6,   13.2,   13.0,   15.3,   15.4,   11.4,    7.1,    4.9,    5.9,    3.8,  999.0,  999.0,  999.0,   -0.7,  999.0,  999.0,  999.0,  999.0,  999.0,  999.0,  999.0,  999.0
2003/06/13 00:45,   14.0,   14.7,   14.2,   14.2,   13.8,   13.9,   14.7,   15.0,   14.6,   14.0,   14.7,   14.8,   14.1,   14.6,   13.6,   13.1,   12.4,   11.2,    9.9,    9.8,    8.8,    7.7,    6.8,    8.3,    9.4,   11.2,   13.0,   13.8,   14.6,   14.8,   14.8,   15.0,   14.9,   15.3,   15.9,   15.1,   13.7,   12.8,   12.5,   11.9,   10.9,   10.8,   12.8,   14.3,   14.1,   14.9,   17.0,   18.1,   19.1,   19.6,   20.2,   21.0,   20.8,   19.7,   19.1,   19.2,   19.1,   18.7,   18.7,   19.0,   19.8,   20.7,   21.5,   21.9,   20.9,   21.9,   22.8,   22.2,   23.5,   25.4,   25.8,   25.9,   28.5,   28.7,   29.5,  999.0,   29.4,   30.5,   28.8,   31.4,  999.0,  999.0,   31.9,   35.5,   36.3,   36.0,   34.0,   34.9,   29.4,   27.5,   24.4,   19.8,   17.3,  999.0,   14.4,   14.7,   15.1,   16.5,   13.4,   12.2,  999.0,   14.1,   14.9,   11.4,    8.1,    4.7,    5.0,    5.1,  999.0,  999.0,  999.0,  999.0,  999.0,  999.0,  999.0,  999.0,  999.0,  999.0,  999.0,  999.0
2003/06/13 00:55,   13.3,   14.0,   14.5,   14.6,   13.9,   14.5,   14.7,   15.0,   14.9,   15.0,   14.2,   14.3,   14.5,   15.1,   14.6,   12.6,   11.8,   10.2,    9.4,    8.4,    8.5,    8.5,    9.1,    8.9,    9.8,   11.0,   11.8,   12.5,   14.5,   15.8,   16.8,   17.1,   16.3,   15.5,   14.9,   13.7,   12.7,   11.8,   11.6,   13.0,   13.0,   11.6,   12.9,   14.6,   15.7,   15.7,   15.7,   16.7,   17.3,   17.5,   18.2,   18.0,   18.5,   19.7,   21.2,   21.4,   20.7,   20.1,   19.1,   19.1,   18.5,   18.6,   18.7,   19.5,   19.9,   19.8,   20.5,   21.1,   22.4,   24.5,   25.8,   27.5,   29.0,   27.9,   28.1,   29.7,  999.0,   31.9,   33.0,   31.7,  999.0,  999.0,   30.0,   33.9,   36.7,   34.7,   33.9,   34.1,   29.5,   29.8,   20.2,   18.3,   16.1,   14.5,   14.7,   13.2,   14.3,   14.9,   14.2,   12.3,   12.3,   15.0,   15.5,   11.6,    8.5,    5.3,    5.2,    5.9,    4.9,    2.5,  999.0,   -1.2,    1.9,  999.0,  999.0,  999.0,  999.0,  999.0,  999.0,  999.0
2003/06/13 01:05,   13.3,   13.7,   14.9,   14.2,   14.3,   13.8,   14.2,   14.4,   15.2,   15.1,   15.6,   15.0,   15.2,   13.9,   13.3,   13.2,   12.4,   11.0,    9.7,    9.3,    9.6,    9.3,   10.2,    9.8,   10.1,   10.7,   11.5,   12.6,   13.9,   15.2,   15.9,   15.9,   15.3,   14.7,   14.0,   13.6,   12.7,   12.5,   13.5,   13.9,   12.2,   13.5,   14.2,   14.1,   14.5,   14.9,   15.2,   16.0,   15.6,   15.9,   15.7,   16.0,   16.8,   17.9,   20.4,   24.5,   24.9,   24.4,   23.5,   22.9,   21.5,   21.2,   20.6,   20.1,   19.3,   19.4,   19.7,   20.4,   21.7,   23.5,   24.5,   25.8,   28.1,   28.8,   28.4,   30.4,   29.9,   32.1,  999.0,   34.7,  999.0,   32.0,   32.3,   34.5,   37.8,   35.6,   34.7,   32.9,   29.5,   29.7,   20.9,   18.4,   17.3,   15.5,   13.4,   13.7,   13.4,   13.9,   15.2,   13.5,    8.6,   15.6,   16.6,   14.6,    7.1,    5.1,    5.6,    5.0,    5.8,    3.1,  999.0,    0.4,    3.0,  999.0,  999.0,  999.0,  999.0,   -1.2,  999.0,  999.0
2003/06/13 01:15,   14.0,   14.2,   13.5,   14.1,   13.9,   14.8,   14.6,   14.7,   15.1,   15.5,   15.8,   16.1,   15.7,   14.2,   12.9,   12.1,   11.3,   11.2,   11.1,   10.4,    9.1,    9.2,    9.9,   10.2,   10.5,   11.1,   12.0,   13.6,   15.2,   15.6,   15.9,   15.3,   14.7,   14.6,   14.4,   13.5,   13.6,   14.2,   15.0,   15.7,   14.2,   14.4,   12.9,   13.5,   13.8,   14.4,   15.3,   15.4,   15.7,   16.8,   15.9,   16.0,   16.9,   17.3,   19.0,   21.6,   24.0,   24.3,   23.0,   22.3,   21.5,   21.5,   20.4,   20.1,   19.7,   19.1,   19.6,   19.1,   20.7,   22.2,   24.3,   26.4,   28.0,   28.6,   29.4,   30.9,   31.4,   30.8,   29.9,   31.5,   32.6,   33.7,   32.9,   35.7,   37.1,   33.9,   34.2,   31.0,   30.2,   29.4,   24.0,   19.4,   17.2,   15.4,   13.0,   12.6,   12.5,   13.2,   14.9,   12.5,   12.8,   15.5,   16.1,   15.2,    8.9,    4.6,    5.3,    7.4,    5.0,    1.9,  999.0,   -1.4,    2.5,  999.0,  999.0,  999.0,  999.0,  999.0,  999.0,  999.0
2003/06/13 01:25,   13.8,   14.0,   14.3,   14.9,   15.1,   14.8,   14.4,   14.9,   16.4,   16.0,   15.9,   16.5,   15.6,   13.9,   13.0,   12.0,   10.9,   10.5,   10.8,   11.5,    9.6,   10.7,   10.9,   11.2,   11.0,   11.1,   11.7,   13.3,   14.7,   15.5,   15.4,   14.9,   14.6,   15.0,   15.0,   14.6,   14.1,   13.3,   14.0,   14.8,   16.8,   18.3,   12.0,   13.6,   13.7,   13.3,   13.9,   14.2,   14.5,   14.9,   15.1,   16.2,   17.0,   18.2,   20.6,   22.7,   24.3,   24.2,   23.2,   22.3,   21.6,   21.2,   20.4,   19.3,   19.0,   19.6,   20.6,   22.1,   23.3,   24.8,   26.6,   28.1,   28.3,   29.5,   29.8,   31.2,   30.1,   31.4,   32.3,   32.6,   32.2,   31.9,   32.4,   35.3,   39.1,   36.4,   35.1,   33.2,   30.6,   29.1,   24.5,   19.7,   18.7,   16.6,    7.9,   13.7,   12.0,   12.5,   15.3,   12.4,   14.0,   15.8,   16.5,   15.4,    9.2,    4.5,    5.3,    6.2,    1.3,    0.1,   -0.3,  999.0,    1.8,  999.0,  999.0,  999.0,  999.0,  999.0,  999.0,  999.0
2003/06/13 01:35,   12.8,   13.5,   13.8,   14.2,   14.8,   15.7,   15.5,   15.2,   15.9,   15.5,   15.8,   16.4,   16.7,   14.3,   13.9,   11.2,   10.2,    9.6,    8.5,    9.0,   10.7,   11.0,   11.1,   11.0,   11.1,   11.4,   11.4,   11.9,   13.3,   14.0,   14.7,   14.8,   14.4,   14.2,   14.0,   13.4,   13.1,   14.0,   15.0,   16.6,   16.8,   14.1,   15.2,   13.0,   14.1,   14.1,   14.4,   14.6,   14.4,   14.8,   15.7,   15.9,   16.1,   17.9,   20.1,   22.0,   23.3,   23.6,   22.5,   20.9,   20.2,   19.3,   19.6,   19.1,   19.1,   19.3,   19.2,   20.6,   21.3,   22.6,   24.0,   25.2,   26.5,   27.5,   27.9,   29.9,   30.8,   31.1,   30.2,   31.6,   31.8,   33.1,   32.8,   36.1,   40.4,   34.7,   36.4,   32.5,   30.0,   28.0,   25.4,   19.5,   17.7,   17.8,   13.7,   13.2,   13.2,   13.6,   14.4,   13.7,   14.7,   15.7,   16.5,   16.7,    8.4,    5.3,    5.5,  999.0,    3.1,   -0.0,  999.0,  999.0,    1.1,    2.4,  999.0,  999.0,  999.0,  999.0,  999.0,  999.0
2003/06/13 01:45,   12.7,   12.4,   12.4,   13.6,   14.7,   15.2,   15.1,   14.7,   14.9,   15.5,   16.2,   15.7,   15.3,   15.1,   14.9,   13.3,   11.8,   12.2,   10.9,   10.3,   11.6,   11.8,   10.9,   11.0,   11.4,   11.5,   11.5,   12.3,   13.5,   14.7,   15.1,   14.4,   14.6,   14.9,   14.0,   13.6,   12.4,   13.7,   16.2,   18.5,   16.9,   12.6,   13.1,   14.7,   15.4,   14.4,   14.4,   14.3,   14.2,   14.6,   15.1,   15.9,   17.1,   18.4,   19.1,   20.6,   22.1,   23.9,   23.9,   22.7,   20.5,   19.5,   19.0,   19.3,   18.5,   18.5,   19.4,   20.5,   20.9,   21.6,   23.0,   24.3,   25.4,   27.1,   24.2,   26.1,   26.6,   29.3,   30.2,   30.8,   31.7,   34.8,   34.1,   36.3,   40.2,   38.1,   37.7,   33.9,   29.9,   28.2,   23.3,   20.8,   16.5,   17.4,   15.5,   13.6,   13.5,   13.2,   14.3,   13.6,   14.1,   16.2,   17.5,   12.3,   11.6,    5.6,    6.4,    8.5,    4.2,    1.4,  999.0,    1.5,    2.5,    4.5,  999.0,  999.0,  999.0,  999.0,  999.0,  999.0
2003/06/13 01:55,   12.4,   12.2,   12.7,   13.5,   14.9,   16.3,   17.2,   17.9,   18.0,   19.3,   16.1,   14.7,   14.0,   13.6,   13.2,   12.3,   10.8,   10.8,   10.5,   10.2,   10.9,   11.5,   12.0,   11.6,   11.0,   10.9,   11.6,   13.0,   13.4,   13.8,   13.7,   13.6,   13.1,   12.9,   13.1,   13.7,   12.7,   14.9,   14.8,   17.0,   14.6,    9.9,   13.7,   13.6,   14.7,   14.6,   14.1,   13.3,   13.4,   14.5,   14.8,   15.7,   17.2,   18.3,   19.2,   19.6,   20.5,   21.7,   22.3,   21.3,   21.4,   20.6,   20.3,   20.0,   20.4,   20.7,   21.7,   21.4,   22.0,   22.5,   24.1,   24.8,   25.4,   25.8,   25.2,   27.0,   27.1,   29.1,   29.6,   29.3,   32.0,   35.2,   36.2,   37.4,   40.5,   39.9,   39.8,   33.2,   30.7,   27.8,   24.1,   20.4,   18.3,   16.4,   16.2,   14.6,   10.5,   11.8,   13.4,   14.5,   15.1,   16.8,   18.2,    9.6,  999.0,    4.9,    6.0,    7.5,    2.0,    0.4,  999.0,  999.0,    2.3,  999.0,  999.0,  999.0,  999.0,  999.0,  999.0,  999.0
2003/06/13 02:05,   13.1,   12.5,   13.2,   15.7,   17.7,   17.7,   18.7,   18.1,   19.3,   18.1,   16.2,   15.7,   15.5,   13.8,   13.3,   12.2,   11.0,   10.9,   10.6,   10.8,   10.7,   11.5,   11.2,   11.3,   10.9,   10.7,   10.8,   10.8,   11.9,   11.7,   11.4,   10.9,   11.2,   11.9,   11.7,   13.8,   16.2,   13.4,   13.3,   14.3,   15.2,   15.0,   14.3,   15.0,   15.0,   14.3,   15.5,   12.5,   13.0,   14.4,   14.3,   15.2,   16.0,   17.3,   17.9,   19.1,   19.2,   20.5,   21.8,   21.9,   22.1,   22.2,   20.8,   21.2,   21.1,   21.7,   21.7,   22.0,   23.0,   23.1,   23.5,   23.1,   23.9,   26.2,   24.5,   24.4,   25.5,   26.8,   29.7,   30.7,   32.8,   32.4,   33.0,   35.9,   39.6,   38.1,   39.8,   33.5,   34.6,   28.1,   25.3,   20.6,   18.5,   17.2,   15.6,   15.2,   12.1,   12.3,   14.0,   13.4,   15.3,   16.6,   17.7,   12.0,    6.4,    4.8,    6.0,    7.2,    1.1,    1.2,  999.0,  999.0,    2.7,  999.0,  999.0,  999.0,  999.0,  999.0,  999.0,  999.0
2003/06/13 02:15,   12.9,   14.0,   14.8,   15.5,   15.9,   16.5,   17.1,   18.0,   18.9,   18.2,   16.2,   14.7,   14.5,   13.8,   12.6,   12.2,   10.9,    9.3,    9.5,   10.8,   11.0,   10.9,   10.3,   10.3,    9.6,    9.4,    9.4,    9.6,   11.0,   11.8,   12.6,   12.8,   12.6,   12.0,   13.1,   13.1,   14.5,   12.9,   12.5,   14.1,   15.4,   11.8,   13.7,   15.8,   16.5,   15.5,   14.8,   15.6,   13.1,   14.2,   15.1,   15.5,   15.9,   16.7,   16.7,   17.8,   18.9,   20.5,   20.8,   21.5,   21.8,   21.4,   21.2,   21.2,   21.1,   20.5,   20.2,   20.4,   20.6,   21.6,   21.7,   22.6,   23.3,   23.4,   24.3,   25.4,   26.6,   29.5,  999.0,   31.0,  999.0,   31.1,   32.8,   36.7,   38.8,   36.4,   39.0,   32.6,   33.7,   25.7,   24.8,   20.4,   18.0,   17.3,   16.1,   14.7,   12.7,   13.5,   13.8,   14.6,   16.2,   17.5,  999.0,  999.0,    7.1,    3.2,    6.2,    7.9,    2.3,    0.8,    0.3,  999.0,    3.2,  999.0,  999.0,  999.0,  999.0,  999.0,  999.0,  999.0
2003/06/13 02:25,   15.6,   16.0,   16.9,   17.1,   16.6,   16.5,   17.9,   18.1,   17.2,   17.4,   16.9,   14.1,   13.5,   13.8,   13.5,   12.6,   11.5,   11.5,    9.4,   10.0,   10.2,    9.9,    9.5,    8.7,    9.0,    8.2,    8.3,    8.7,    9.6,   10.8,   11.6,   11.9,   11.4,   12.1,   13.3,  999.0,  999.0,   12.1,   11.1,   13.0,   13.7,   12.4,   14.0,   15.1,   16.0,   15.5,   15.9,   16.8,   15.7,   14.3,   14.8,   15.4,   15.1,   15.6,   17.0,   17.6,   18.7,   20.6,   22.4,   21.6,   21.4,   21.2,   22.4,   22.1,   22.1,   21.5,   22.3,   22.0,   22.2,   22.3,   22.7,   22.6,   23.5,   25.3,   26.0,   27.4,   29.9,   28.8,  999.0,   30.2,   31.3,   33.6,   34.5,   38.7,   37.6,   36.9,   38.5,   35.5,   36.4,   28.3,   25.1,   20.3,   17.3,   15.9,   14.6,   13.8,   12.3,   13.3,   13.6,   14.4,   16.5,   19.3,  999.0,   11.3,    5.6,    4.8,    6.3,    8.0,    3.6,    1.8,  999.0,  999.0,    3.1,    3.2,  999.0,  999.0,  999.0,  999.0,  999.0,  999.0
2003/06/13 02:35,   15.9,   17.1,   17.2,   17.1,   17.7,   18.0,   17.8,   17.7,   17.1,   16.8,   16.1,   14.1,   13.6,   14.4,   13.6,   12.4,   11.6,   12.0,   10.6,   10.0,   10.4,   10.3,    9.1,    8.1,    7.8,    8.0,    8.7,    9.3,   10.4,   11.8,   12.1,   12.1,   12.6,   12.4,   12.9,   13.2,   12.5,   12.3,   13.1,   14.1,   14.5,   13.0,   13.9,   16.0,   13.7,   14.9,   15.6,   15.7,   16.0,   15.9,   13.5,   14.1,   14.8,   14.1,   15.2,   16.9,   18.2,   18.5,   20.0,   20.8,   21.2,   21.1,   20.7,   21.1,   20.0,   19.9,   20.7,   19.9,   20.3,   21.2,   22.6,   22.6,   23.5,   23.5,   25.6,   26.6,   28.3,   29.6,   28.1,   31.3,   34.0,   36.3,   34.8,   38.7,   40.0,   37.1,   38.3,   33.6,   33.0,   27.6,   24.8,   18.9,   16.5,   15.9,   16.1,   13.3,   12.1,   12.9,   12.3,   12.5,   15.1,   18.2,   16.1,  999.0,  999.0,    5.5,    5.8,    8.4,    2.9,    1.7,    2.3,  999.0,  999.0,  999.0,  999.0,  999.0,  999.0,  999.0,  999.0,  999.0
2003/06/13 02:45,   15.7,   17.5,   16.5,   16.6,   17.3,   17.5,   18.0,   18.5,   18.2,   16.7,   15.8,   14.6,   13.7,   13.7,   14.1,   13.5,   12.8,   13.1,   12.1,   11.8,   10.2,   10.1,    9.6,    8.2,    7.4,    8.1,    9.2,   10.6,   11.9,   11.8,   12.6,   13.1,   12.0,   12.2,   12.7,   12.3,   11.3,   12.0,   11.9,   12.8,   13.7,   13.5,   12.8,   14.4,   16.1,   13.3,   13.9,   14.4,   14.4,   14.9,   13.5,   14.0,   13.5,   14.4,   16.2,   16.9,   18.1,   20.4,   21.3,   20.6,   19.8,   19.1,   18.3,   18.2,   18.3,   18.3,   18.3,   18.7,   19.5,   21.6,   22.3,   21.2,   22.3,   23.7,   25.6,   27.7,   28.6,   27.9,   30.0,   33.0,   35.9,   36.0,   35.3,   38.8,   42.1,   35.0,   37.6,   33.1,   29.3,   25.2,   22.7,   18.5,   15.5,   15.2,   15.7,   12.9,   11.9,   12.0,   14.7,  999.0,   15.6,   16.8,   16.5,   12.3,   10.4,    5.2,    5.7,    7.6,    3.8,    2.8,    2.2,  999.0,    4.3,  999.0,  999.0,  999.0,  999.0,  999.0,  999.0,  999.0
2003/06/13 02:55,   15.9,   16.7,   16.5,   15.9,   15.5,   16.0,   16.2,   17.6,   19.2,   17.9,   16.2,   15.0,   13.5,   13.3,   13.3,   14.1,   13.3,   12.7,   12.3,   11.7,   11.8,   11.6,   10.8,    9.1,    7.9,    8.6,    9.8,   11.5,   12.1,   12.8,   13.3,   13.1,   12.9,   12.7,   11.8,   11.8,   10.5,   11.6,   11.4,   12.2,   13.7,   13.4,   12.8,   13.6,   15.5,   16.1,   14.4,   14.2,   14.2,   14.2,   14.1,   13.6,   14.2,   15.8,   16.6,   18.1,   19.8,   22.1,   22.7,   20.4,   19.8,   18.8,   18.3,   18.0,   17.2,   17.4,   17.9,   18.3,   19.1,   18.4,   21.0,   20.4,   23.2,   22.6,   24.2,   25.4,   27.0,   27.7,   29.7,   31.6,   33.9,   36.6,   38.1,   39.6,   38.7,   39.1,   36.9,   33.3,   31.0,   26.4,   21.9,   18.8,   15.4,   14.1,   14.8,   12.8,   10.9,   11.4,   14.4,  999.0,   15.1,   17.3,   16.5,   13.2,    9.3,    7.9,    5.4,    8.3,    3.0,    1.9,    2.1,  999.0,    2.7,  999.0,  999.0,  999.0,  999.0,    2.4,  999.0,  999.0
2003/06/13 03:05,   14.8,   16.3,   17.2,   16.3,   15.4,   14.6,   14.3,   15.0,   16.1,   17.3,   17.0,   16.0,   14.2,   12.9,   12.0,   12.0,   12.9,   12.9,   12.9,   12.0,   11.8,   10.4,   10.0,    9.4,    8.5,    9.3,   10.7,   12.2,   13.1,   12.8,   11.9,   12.5,   12.3,   11.7,   11.6,   13.8,    9.8,   10.7,   11.4,   12.5,   13.9,   13.0,   12.6,   14.0,   16.1,   15.5,   14.0,   14.8,   15.6,   14.4,   13.6,   13.9,   14.1,   15.8,   16.7,   18.1,   19.3,   21.7,   22.9,   22.2,   20.1,   20.3,   19.4,   18.9,   18.5,   19.1,   18.3,   18.4,   19.2,   20.0,   20.8,   20.5,   21.3,   21.6,   22.9,   24.3,   26.2,   27.6,   28.7,   31.5,   33.6,   37.2,   38.3,   38.4,   35.6,   36.6,   37.3,   33.9,   33.3,   28.6,   25.6,   19.5,   16.2,   15.1,   13.9,   15.2,   11.4,   12.9,   14.7,   18.2,   16.4,   17.8,   17.6,   15.4,    9.8,  999.0,    6.9,    9.2,    4.7,    2.8,    3.0,  999.0,    3.0,    4.2,  999.0,  999.0,  999.0,  999.0,  999.0,  999.0
2003/06/13 03:15,   17.4,   18.4,   17.1,   16.0,   15.3,   14.9,   14.7,   13.5,   13.2,   15.3,   16.2,   16.1,   14.6,   12.5,   12.1,   11.8,   11.7,   12.5,   12.3,   12.1,   11.8,   10.2,   10.7,   11.0,    8.7,    9.2,   10.6,   11.6,   12.1,   11.2,   11.3,   12.2,   12.1,   11.6,   10.7,   11.5,    8.0,   11.0,   12.5,   13.6,   13.0,   12.6,   13.5,   16.2,   16.8,   14.2,   15.0,   15.1,   15.5,   15.4,   14.1,   14.3,   14.3,   15.8,   17.6,  999.0,   17.8,   20.2,   20.9,   20.6,   18.1,   17.8,   18.9,   20.1,   19.1,   18.4,   19.6,   18.8,   19.5,   19.6,   20.7,   21.1,   23.3,   23.6,   24.2,   25.4,   26.5,   27.3,   27.9,   29.5,   30.4,   32.7,   34.2,   31.4,   36.1,   31.8,   33.1,   31.0,   30.3,   27.8,   25.7,   21.8,   17.6,   16.0,   15.3,   15.9,   15.6,   13.0,   14.7,   16.0,   17.9,   18.7,   18.6,   14.5,    9.8,    5.4,    8.0,    9.9,    3.0,    3.5,    4.2,    5.2,    3.9,    3.9,  999.0,  999.0,  999.0,  999.0,  999.0,  999.0
2003/06/13 03:25,   17.3,   17.6,   18.0,   16.5,   16.5,   16.2,   15.0,   14.2,   14.1,   15.6,   15.9,   14.2,   13.4,   13.0,   11.4,   11.7,   12.2,   12.0,   12.2,   11.7,   11.5,   11.0,   11.2,   11.5,    9.7,    9.0,    9.6,   10.4,   11.0,   11.0,   10.9,   11.4,   11.3,   11.2,    9.6,   10.3,    8.8,   10.6,   12.7,   13.8,   12.3,   12.9,   14.4,   16.4,   15.4,   16.7,   17.8,   16.3,   16.6,   16.1,   14.7,   15.1,   15.2,   15.6,   14.8,  999.0,   19.1,   20.2,   20.8,   22.1,   21.5,   21.8,   20.3,   20.3,   20.3,   20.4,   20.7,   21.9,   22.3,   24.2,   25.2,   27.3,   29.2,   29.9,   29.6,   29.7,   28.9,   28.5,   27.7,   29.1,   27.5,  999.0,   33.0,   30.1,   30.7,   32.0,   29.5,   30.7,   29.4,   28.2,   24.2,   22.9,   18.3,   15.3,   14.4,   15.5,   14.9,   13.0,   15.0,   16.1,   18.1,   19.4,   17.8,  999.0,  999.0,    6.3,    8.0,    9.1,    3.3,    2.5,    3.7,    4.2,    4.0,    3.6,  999.0,  999.0,  999.0,  999.0,  999.0,  999.0
2003/06/13 03:35,   17.1,   17.3,   17.8,   17.9,   17.5,   17.2,   16.3,   15.5,   14.2,   14.7,   16.4,   15.6,   13.0,   11.4,   11.7,   11.7,   12.8,   13.2,   13.4,   13.4,   13.2,   11.3,   11.0,   11.5,   11.1,   10.2,   10.9,   11.8,   11.4,   11.2,   11.1,   10.7,   10.9,    9.8,   10.0,    8.2,    9.2,    8.9,   10.5,   12.2,   12.5,   12.7,   12.6,   14.1,   15.3,   16.6,   17.6,   15.9,   15.8,   14.4,   13.9,   14.1,   14.2,  999.0,  999.0,   16.5,   19.3,   20.0,   22.1,   22.6,  999.0,   19.6,   18.5,   19.5,   20.0,   20.9,   21.2,   23.0,   25.2,   26.7,   27.7,   29.5,   30.7,   30.7,   26.4,   26.3,   27.0,   26.4,   28.1,   26.4,   27.2,   29.9,   28.9,   29.3,   30.7,   28.6,   28.5,   28.3,   28.2,   25.7,   24.5,   22.2,   18.2,   14.9,   13.4,   14.3,  999.0,   13.3,   15.6,  999.0,   17.9,   19.6,   18.4,   13.6,    8.6,    6.7,    6.8,    8.6,    4.5,    2.8,    4.4,    4.7,    4.4,    5.1,  999.0,  999.0,  999.0,    0.7,  999.0,  999.0
2003/06/13 03:45,   15.8,   17.0,   16.6,   16.9,   17.0,   16.4,   16.3,   15.9,   16.2,   16.1,   14.7,   14.3,   12.8,   11.6,   11.7,   11.9,   12.4,   11.7,   11.0,   10.2,   11.5,   11.6,   11.2,   10.3,   10.8,   10.6,   10.2,   10.0,   10.5,   10.3,    9.9,    9.0,    9.4,    9.5,    8.8,    8.7,    9.2,    9.3,   11.0,   12.5,   13.8,   11.0,   11.3,   12.9,   14.4,   15.0,   15.4,   15.9,   15.6,   12.0,   12.7,   12.7,   13.3,  999.0,  999.0,  999.0,  999.0,  999.0,   21.6,   23.9,  999.0,   19.7,   19.5,   18.1,   19.6,   19.9,   20.9,   22.7,   24.7,   26.4,   27.9,   28.7,   27.8,   26.8,   26.2,   26.4,   26.2,   25.7,   27.0,   27.6,   31.3,   27.2,   29.4,   31.7,   31.4,   30.4,   28.3,   28.1,   29.3,   25.7,   23.2,   22.8,   19.8,   16.2,   13.4,   13.9,   16.0,   12.6,   14.8,   16.7,   16.9,   19.2,   18.4,  999.0,  999.0,    7.1,    6.7,    8.1,    5.2,    3.3,    4.2,    4.2,    4.2,    4.5,  999.0,  999.0,  999.0,  999.0,  999.0,  999.0
2003/06/13 03:55,   15.1,   16.7,   17.0,   18.0,   17.4,   17.4,   16.2,   17.1,   15.7,   15.3,   14.8,   13.9,   12.4,   10.3,   10.3,   11.6,   13.2,   13.5,   12.5,   12.5,   13.0,   12.7,   12.4,   10.0,    9.7,   10.0,    9.8,    9.8,   10.3,   10.1,    9.2,    9.7,   10.2,    9.7,    8.8,    9.4,    9.6,   10.4,   11.6,   11.6,   10.9,   10.7,   12.2,   14.1,   15.1,   16.1,   16.3,   16.1,   14.4,   13.2,   13.7,   14.5,   14.7,   16.9,   18.9,  999.0,   19.4,   21.8,   23.6,  999.0,   22.0,   21.1,   18.8,   18.3,   18.3,   18.6,   19.5,   21.2,   24.3,   26.6,   27.1,   26.9,   27.1,   27.1,   25.9,   25.3,   26.5,   24.6,   26.5,   27.9,   28.2,   29.7,   31.2,   32.8,   31.0,   31.3,   30.0,   29.4,   27.7,   22.9,   21.8,   23.2,   20.1,   16.0,   14.0,   13.1,   13.2,   10.7,   13.3,   15.0,   15.0,   17.3,   18.1,   12.6,    9.3,    8.7,    7.8,    8.7,    4.7,    3.4,    4.4,    4.0,    3.6,    4.3,  999.0,  999.0,  999.0,    3.0,  999.0,  999.0
2003/06/13 04:05,   14.9,   15.7,   16.8,   16.5,   16.8,   16.6,   18.2,   17.5,   17.6,   15.8,   13.7,   14.0,   11.2,   10.3,    9.3,   10.3,   12.1,   13.4,   12.7,   12.0,   11.7,   11.8,   11.3,   11.4,   10.2,    9.6,    9.4,    9.4,    9.7,   10.2,   10.1,   10.3,   10.9,    9.9,    8.5,   14.3,   11.0,   11.2,   12.3,   11.6,   11.4,   11.1,   12.3,   13.7,   15.6,   16.6,   15.4,   14.2,   12.3,   12.3,   13.5,   14.0,   15.1,   17.7,  999.0,   18.7,   20.4,   21.9,   21.4,   18.4,   19.1,   19.5,   18.5,   18.7,   18.4,   18.0,   20.2,   22.0,   24.1,   24.1,   24.7,   25.6,   25.3,   25.4,   25.2,   25.6,   26.2,   26.2,   27.2,   26.3,  999.0,   27.1,   29.5,   31.1,   31.6,   32.2,   29.7,   30.8,   27.5,   23.5,   20.6,   22.0,   20.2,   15.8,   14.4,   12.2,   12.6,   14.1,   12.5,   14.1,   14.9,   17.0,   18.1,   13.4,   12.6,    7.8,    8.5,    7.8,    5.5,    4.8,    5.7,  999.0,    4.8,    3.4,    2.5,    2.0,  999.0,  999.0,  999.0,  999.0
2003/06/13 04:15,   16.4,   16.8,   17.0,   16.9,   16.5,   16.8,   16.7,   16.9,   16.2,   15.7,   14.8,   13.2,   12.0,    9.6,    8.8,   10.2,   11.5,   12.9,   13.4,   12.7,   12.3,   11.0,   10.0,    9.7,   10.6,   10.3,    9.5,    9.3,    9.9,   10.5,    9.3,   10.0,   10.7,   10.8,    9.6,   13.1,   12.2,   11.8,   12.5,   11.5,   11.1,   11.0,   13.5,   15.3,   16.3,   17.7,   16.8,   15.7,   15.2,   14.1,   15.0,   13.9,   14.8,   16.3,   19.0,   17.8,   18.2,   19.8,   21.5,   23.9,   19.4,   20.3,   17.1,   17.9,   16.8,   17.3,   19.6,   21.7,   22.5,   23.6,   23.6,   24.7,   23.9,   25.7,   26.6,   26.6,   28.2,   27.0,   28.3,   27.7,   27.8,   29.7,   30.4,   31.5,   30.2,   29.3,   29.9,   30.2,   26.5,   23.8,   20.0,   21.0,   18.5,   14.5,   12.3,   12.2,   11.9,   12.8,   11.4,  999.0,   16.8,   18.8,   17.5,   11.7,   12.0,    9.4,   10.9,    8.0,    6.4,    5.6,    5.8,  999.0,    4.7,    3.4,    3.8,    2.4,    0.9,  999.0,  999.0,  999.0
2003/06/13 04:25,   16.2,   16.3,   17.2,   16.2,   15.3,   15.6,   16.4,   16.8,   15.9,   15.2,   13.9,   13.2,   13.0,   10.7,    8.8,    9.8,   11.0,   12.4,   12.0,   12.3,   13.2,   12.1,   10.7,    9.8,   10.1,   10.3,   10.1,    9.7,    9.5,    9.7,    8.1,    9.4,   10.7,   10.2,   11.0,   11.7,   12.0,   11.4,   11.4,   11.2,   11.5,   13.7,   15.3,   17.0,   17.7,   18.4,   19.0,   18.3,   17.3,   16.6,   16.9,   15.8,   16.8,   16.9,   17.6,   18.0,   21.4,   21.5,   22.0,   20.1,   18.9,   17.1,   16.2,   17.8,   17.6,   19.1,   21.0,   21.0,   22.1,   23.2,   24.9,   23.3,   24.3,   23.9,   23.8,   25.3,   26.3,   28.2,  999.0,  999.0,   28.9,   28.4,   29.8,   31.5,   32.0,   29.7,   31.2,   30.5,   30.1,   20.7,   19.1,   19.5,   15.1,   13.5,   11.0,   11.3,   12.1,   11.7,   12.1,  999.0,   15.8,   17.4,   18.5,   12.2,   11.5,   10.1,   11.1,    8.8,    7.3,    5.1,  999.0,    4.1,    4.4,    3.6,    2.9,    1.9,    2.2,  999.0,  999.0,  999.0
2003/06/13 04:35,   16.3,   16.2,   17.3,   17.5,   16.5,   14.9,   15.7,   15.9,   15.4,   15.0,   15.2,   14.5,   12.8,   12.3,   10.6,   10.3,   10.8,   12.0,   11.9,   11.6,   12.1,   11.6,   11.5,   10.7,   10.1,   10.2,    9.5,    8.7,    9.1,    9.5,    9.0,    9.2,    9.7,    9.1,    9.8,   11.0,   12.9,   11.6,   11.2,   10.8,   12.0,   13.6,   16.1,   17.9,   18.9,   19.7,   19.6,   19.9,   20.2,   18.0,   19.4,   17.4,   16.1,   16.7,   17.3,   19.8,   22.6,   21.7,   21.0,  999.0,  999.0,   19.7,   17.8,   17.7,   17.4,   19.1,   21.1,   21.0,   22.5,   23.6,   23.7,   23.8,   23.7,   24.7,   24.7,   25.8,   26.2,   25.6,   26.1,   29.6,   29.2,   26.9,   27.7,   28.6,   31.6,   30.9,   29.0,   31.3,   28.8,   20.8,   21.7,   19.6,   14.5,   12.9,   10.6,   12.4,   14.0,  999.0,   13.2,   14.9,  999.0,   18.5,   19.3,   12.3,   12.2,   11.0,   11.0,    8.0,    9.6,    3.8,    3.4,  999.0,    4.3,    3.3,    3.8,    2.1,  999.0,  999.0,  999.0,  999.0
2003/06/13 04:45,   14.7,   15.0,   16.3,   16.5,   15.4,   14.4,   14.2,   14.7,   14.3,   15.7,   16.3,   15.6,   14.8,   13.9,   11.9,   10.6,   11.4,   12.3,   11.7,   11.5,   11.4,   10.8,   10.6,    9.7,    9.6,    9.8,    8.9,    9.1,    9.6,    9.4,   10.6,   10.7,   10.5,   10.2,   10.0,   10.8,   12.6,   13.3,   11.1,   11.0,   10.7,   12.8,   15.0,   16.9,   18.1,   19.0,   19.1,   18.9,   18.9,   16.8,   17.2,   15.6,   15.4,   15.3,   15.8,   17.3,   20.2,   20.0,   18.9,   17.5,   17.0,   17.4,   16.6,   16.8,   17.5,   18.0,   18.4,   19.5,   21.4,   21.7,   22.2,   23.1,   24.0,   25.1,   26.3,   25.9,   25.8,   27.0,   24.6,   27.0,   26.9,   26.4,   27.9,   30.5,   31.2,   28.6,   28.7,   29.2,   25.8,   19.8,   20.2,   17.5,   13.8,   10.9,   10.5,   11.8,   14.1,   13.9,   12.5,   14.6,  999.0,   18.0,   18.2,   13.8,   13.0,   11.0,   11.8,    8.1,    7.3,    4.2,    4.7,    6.0,    3.5,    3.5,    3.7,    2.3,  999.0,  999.0,  999.0,  999.0
2003/06/13 04:55,   14.2,   14.8,   16.3,   16.7,   16.1,   15.2,   14.6,   14.4,   14.1,   14.8,   15.5,   15.1,   14.9,   13.6,   13.4,   11.5,   11.1,   11.6,   11.8,   12.4,   12.4,   11.8,   10.7,    9.8,    9.1,    9.1,    8.7,    9.2,   10.1,   10.5,   11.0,   10.5,   10.6,    9.5,    9.8,   11.0,   11.8,   11.6,   11.3,   10.8,   11.1,   13.1,   15.7,   17.8,   19.0,   19.8,   19.7,   19.2,   19.5,   17.2,   17.7,   15.6,   15.1,   15.7,   15.6,   17.1,   19.8,   20.7,   18.0,   18.0,   16.8,   16.0,   16.4,   17.6,   18.1,   18.9,   17.8,   18.3,   20.6,   21.5,   22.3,   22.8,   23.0,   24.0,   24.8,   25.9,   26.7,   25.3,   24.9,   26.7,   28.1,   28.5,   29.3,   30.0,   32.0,   29.0,   29.4,   29.2,   24.5,   19.9,   18.7,   17.7,   14.3,   12.2,   11.7,   12.2,   15.2,  999.0,   14.5,  999.0,  999.0,   17.7,   16.9,   14.4,   11.4,   10.5,   10.7,    7.8,    6.9,    4.0,    5.8,    4.9,    4.4,    2.8,    3.6,    2.2,  999.0,  999.0,  999.0,  999.0
2003/06/13 05:05,   14.4,   14.4,   14.4,   15.3,   16.9,   16.7,   15.7,   14.5,   13.6,   14.0,   13.7,   14.0,   14.6,   14.3,   13.8,   13.9,   12.3,   12.1,   12.3,   11.8,   12.3,   12.6,   11.6,   10.3,    9.1,    8.6,    8.3,    7.6,    8.7,    9.8,   10.3,    9.5,   10.2,    9.5,    8.6,   11.3,   11.8,   11.8,   10.5,   10.7,   10.4,   11.5,   13.5,   16.8,   18.4,   18.1,   18.7,   19.4,   19.7,   17.8,   18.0,   18.0,   16.0,   15.7,   16.5,   18.8,   20.8,   19.7,   19.2,   18.1,   16.2,   16.5,   16.6,   18.2,   18.7,   19.8,   19.7,   18.8,   20.1,   22.1,   22.1,   23.5,   23.0,   23.6,   23.8,   24.7,  999.0,   26.3,   23.8,   27.6,   26.4,   24.8,   29.2,   31.5,   29.1,   28.9,   29.3,   28.9,   27.3,   21.9,   21.5,   19.2,   15.1,   12.8,   12.1,   13.8,   15.4,   15.5,   13.6,   16.6,   15.6,   17.9,   18.0,   13.1,   10.6,   11.1,   11.3,    8.3,    6.5,    5.3,    6.0,    5.7,    5.0,    3.7,    3.3,    2.8,   -1.0,  999.0,  999.0,  999.0
2003/06/13 05:15,   13.6,   12.5,   13.0,   14.4,   15.9,   16.0,   16.7,   15.3,   14.8,   14.1,   14.1,   13.6,   14.3,   14.1,   14.5,   13.8,   13.3,   12.8,   12.5,   12.5,   11.5,   11.6,   10.7,   10.6,    9.4,    8.5,    7.9,    8.1,    8.6,    8.4,    9.2,    8.2,    9.6,    9.2,    8.5,    9.6,   10.8,   10.8,   10.6,   10.0,   10.7,   10.3,   12.1,   15.0,   16.4,   17.4,   17.4,   18.8,   17.0,   16.8,   17.2,  999.0,  999.0,   15.0,   16.4,   18.0,   19.2,  999.0,  999.0,   20.8,   14.3,  999.0,   14.9,   17.0,   17.4,   19.5,   20.5,   19.8,   19.8,   21.1,   23.3,   22.5,   23.1,   21.4,   23.2,   24.2,   24.9,   25.3,  999.0,   26.1,   29.9,   31.8,   28.9,   31.5,  999.0,   31.2,  999.0,   28.9,   28.1,   20.1,   20.4,   21.0,   16.5,   14.0,   13.7,   13.9,   16.2,   14.4,   15.4,   17.9,   15.9,   19.1,   19.6,   14.7,   13.7,   10.4,   10.7,    8.3,    6.4,    5.8,    7.7,  999.0,    4.8,    3.4,    2.5,    2.5,  999.0,  999.0,  999.0,   -3.1
2003/06/13 05:25,   13.2,   11.9,   12.0,   12.7,   14.9,   15.1,   15.8,   15.4,   14.5,   14.3,   14.4,   14.9,   15.3,   15.1,   14.9,   14.0,   13.3,   13.3,   13.6,   12.9,   11.7,   11.8,   11.1,   11.3,   10.7,   10.1,    9.3,    8.9,    9.4,   11.2,   11.5,   11.0,   11.1,   10.8,    9.6,    9.2,   11.0,   11.6,   11.5,   11.8,   10.5,   11.3,   14.2,   17.0,   18.7,   19.2,   19.6,   19.4,   17.6,   18.9,   15.5,  999.0,   19.6,   18.9,   19.5,   18.8,   20.3,   22.6,   18.4,   16.9,   15.2,   17.0,   17.9,   17.1,   20.2,   20.0,   22.3,   21.2,   20.8,   22.2,   24.0,   23.6,   23.5,   22.9,   23.3,   23.9,   25.7,   27.9,   26.7,   29.3,  999.0,   29.2,   29.8,   30.7,  999.0,   29.3,   27.2,   27.6,   24.2,   19.0,   20.3,   20.1,   19.2,   15.1,   13.9,   13.3,   16.7,   16.2,   15.4,   17.1,  999.0,   18.1,   18.9,   14.2,   12.4,   10.7,   11.7,    7.9,    6.6,    6.3,    7.0,    4.3,    4.8,    2.8,    3.3,    4.0,  999.0,  999.0,  999.0,   -0.5
2003/06/13 05:35,   13.8,   12.5,   12.0,   12.9,   15.0,   15.3,   15.6,   15.6,   14.9,   14.4,   14.7,   15.9,   15.6,   15.6,   14.5,   15.2,   15.5,   15.2,   16.1,   15.3,   14.8,   13.3,   12.7,   11.4,    9.4,    9.9,   10.6,   10.3,   10.8,   10.7,   11.3,   10.7,   10.6,    9.9,   10.4,   10.3,   11.8,   12.5,   12.3,   11.3,   12.5,   14.6,   17.0,   18.1,   19.4,   20.0,   20.8,   18.4,   19.3,   17.2,  999.0,  999.0,  999.0,   18.2,   19.7,   19.7,   19.5,   21.2,   18.4,   16.1,   15.4,  999.0,   16.2,   16.4,   16.8,   18.9,   21.3,   20.4,   19.4,   21.0,   22.4,   22.9,   23.3,   23.5,   24.9,   26.4,  999.0,   28.4,  999.0,  999.0,   26.3,   28.8,   30.0,   30.7,   27.6,   28.3,   28.3,   28.6,   27.7,   22.2,   22.0,   22.4,   23.3,   17.0,   14.9,   16.7,   18.8,   20.9,   17.4,   16.7,  999.0,   18.8,   19.3,   15.7,   11.4,   11.3,   11.3,    7.7,    7.0,    7.3,    5.2,    4.8,    2.2,    2.1,    3.0,    1.3,   -0.1,  999.0,    2.1,  999.0
2003/06/13 05:45,   13.2,   12.0,   11.5,   13.0,   14.5,   15.6,   15.5,   14.7,   14.9,   14.5,   15.3,   14.7,   15.3,   15.0,   14.8,   15.5,   16.0,   15.3,   13.6,   13.3,   13.0,   12.1,   11.1,   11.1,    8.0,    7.9,    8.4,    8.3,    7.6,    9.6,   10.4,   10.5,   10.1,    8.1,    8.5,    9.4,   11.2,   11.9,   11.8,   10.4,   12.4,   14.3,   17.3,   19.1,   20.0,   21.7,   20.9,   20.2,  999.0,   18.8,  999.0,   17.8,   18.3,   17.5,   18.3,   19.3,   18.0,   19.1,   17.6,   17.0,   16.4,   16.6,   16.6,   17.3,   18.2,   20.4,   21.3,   21.5,   19.6,   21.3,   22.2,   23.0,   22.8,   24.7,   26.0,   27.7,   29.6,   29.4,  999.0,   26.7,   27.5,   28.8,   27.8,   26.3,   28.2,   28.1,   24.0,   26.0,   27.2,   21.0,   20.7,   20.4,   21.1,   17.9,   15.2,   15.6,   17.2,   19.4,   16.7,   18.3,  999.0,   19.5,   20.7,   12.0,   12.6,   11.3,   12.1,    8.2,    8.6,    7.1,    7.4,    5.0,    2.9,    2.6,    2.6,    1.5,   -1.4,  999.0,  999.0,  999.0
2003/06/13 05:55,   13.1,   12.2,   12.5,   13.1,   13.7,   13.8,   13.8,   13.0,   12.8,   12.8,   13.4,   13.4,   14.4,   15.6,   15.3,   15.3,   14.2,   13.4,   12.6,   12.5,   12.2,   11.6,   12.8,   11.5,   10.2,    9.2,    9.7,    9.9,   10.0,   11.5,   11.3,   11.5,   10.9,   10.8,    9.5,   10.2,   10.9,   11.6,   11.1,   11.5,   10.6,   13.1,   15.2,   17.1,   18.7,   20.5,   21.4,   19.7,   19.4,   18.5,   15.7,   17.7,   18.1,   18.3,   18.2,   18.8,   17.8,   18.4,   18.5,   17.4,   16.8,   16.8,   17.2,   18.5,   21.5,   21.3,   22.5,   20.6,   20.4,   21.3,   22.5,   22.3,   25.1,   25.0,   25.6,   29.2,   28.2,   29.2,   14.0,   26.8,   27.6,   28.4,   27.6,   27.5,   26.3,   27.4,   24.3,   24.5,   26.5,   20.4,   20.7,   19.2,   19.1,   17.9,   14.4,   13.8,   15.5,   17.5,   15.0,   14.8,   17.6,   17.8,   18.6,   12.9,   10.1,    9.4,    9.8,    7.9,    8.3,    5.2,    6.7,    5.5,    6.4,    3.3,    2.1,    1.7,   -2.4,  999.0,  999.0,  999.0
2003/06/13 06:05,   12.7,   12.4,   11.7,   12.1,   13.4,   13.3,   14.0,   12.5,   12.5,   12.6,   13.4,   13.6,   13.2,   14.4,   15.3,   15.0,   14.6,   14.4,   14.2,   13.8,   13.3,   12.6,   13.9,   12.6,   12.9,   10.9,    9.3,    8.9,    9.8,   10.4,   11.1,   12.3,   12.1,   12.2,   10.2,   10.6,   10.9,   11.5,   11.7,   11.5,   11.2,   14.2,   16.1,   18.4,   19.3,   20.9,   23.5,   19.9,   19.9,   17.2,  999.0,  999.0,   18.4,   19.2,   18.8,   19.6,   19.6,   17.6,   17.8,   17.9,   17.6,   17.4,   18.1,   19.5,   22.4,  999.0,   21.8,   21.3,   20.7,   22.0,   22.0,   23.7,   24.6,   25.6,   29.6,   29.3,   28.3,   27.1,   28.0,   29.0,   28.0,   28.1,   28.3,   29.3,   26.4,   27.7,   25.3,   24.7,   25.7,   22.6,   22.6,   20.6,   19.5,   17.0,   14.1,   12.3,   12.9,   16.0,   16.3,   14.6,   17.5,   16.7,   16.1,   11.9,    9.5,    8.7,    8.4,    6.3,    4.8,    5.0,    6.8,    6.7,    7.1,    2.8,    2.1,    1.0,  999.0,    1.2,  999.0,  999.0
2003/06/13 06:15,   13.4,   12.3,   12.8,   13.2,   13.2,   13.6,   14.8,   12.6,   11.8,   11.3,   12.5,   13.0,   13.6,   13.7,   13.9,   14.5,   14.6,   14.8,   14.7,   12.9,   13.3,   13.4,   12.0,   12.3,   13.9,   12.1,   11.1,   10.6,   10.7,   11.4,   11.7,   12.4,   10.4,   10.0,    9.1,    9.1,    9.5,   10.5,   10.9,   11.0,   10.4,   12.7,   14.8,   16.9,   18.4,   20.1,   20.5,   21.1,   21.1,   19.6,   19.9,  999.0,   17.2,   19.1,   18.7,   18.6,  999.0,   16.2,   15.6,   16.2,   16.8,   17.4,   16.1,   18.8,   20.8,   22.5,   21.7,  999.0,   20.2,   21.1,   21.0,   22.5,   24.8,   27.0,   28.9,   31.3,  999.0,   28.4,   26.7,   26.8,   27.3,   25.6,   27.8,   27.0,   25.5,   24.3,   24.5,   25.8,   27.0,   22.0,   22.2,   21.1,   19.4,   18.1,   14.6,   13.0,   13.9,   15.3,   15.1,   14.8,  999.0,   16.7,   17.7,   12.0,  999.0,   10.0,   10.2,    7.5,    5.6,    6.8,    7.3,  999.0,    6.0,    2.4,    2.0,    2.4,    2.1,  999.0,  999.0,  999.0
2003/06/13 06:25,   14.0,   13.2,   12.9,   12.4,   13.3,   14.0,   13.8,   13.5,   10.8,   10.4,   11.3,   12.7,   12.1,   12.1,   12.4,   11.8,   12.5,   13.0,   13.6,   13.4,   13.4,   11.0,   12.4,   12.9,   14.1,   13.4,   12.9,   10.7,   11.1,   10.4,    9.7,   10.2,   10.4,    8.3,    8.3,    8.4,    8.8,   10.2,   10.1,    8.9,   10.0,   12.0,   13.7,   16.4,   17.4,   18.9,   19.5,   19.4,   19.2,   17.8,   18.0,   16.9,   17.4,   18.9,   18.8,   17.4,   15.6,   15.1,   15.7,   16.4,   16.7,   17.4,   17.0,   17.2,   19.5,   22.3,   20.3,   20.7,   20.1,   20.9,   21.7,   24.0,   26.2,   28.0,   30.1,   28.1,   29.4,   25.9,   27.4,   26.3,   25.5,   27.4,   29.3,  999.0,  999.0,   26.1,   26.4,   26.2,   28.0,   23.1,   22.5,   22.9,   18.9,   17.3,   14.9,   12.8,   13.3,   15.3,   17.1,   15.7,  999.0,   17.4,   16.5,   12.4,   10.4,   10.8,    9.8,    7.7,    5.8,    6.1,    6.1,    4.9,    5.6,    1.8,    2.1,    1.6,   -0.2,  999.0,  999.0,  999.0
2003/06/13 06:35,   13.4,   11.9,   11.6,   12.6,   13.2,   14.4,   13.6,   13.3,   11.6,   10.2,   11.0,   10.8,   11.1,   11.0,   11.5,   11.2,   11.0,   11.9,   13.4,   12.9,   11.7,   11.5,   12.6,   13.2,   13.2,   12.2,   11.9,   11.6,   11.4,   11.4,   12.2,   12.1,   11.3,    9.3,    9.0,    9.6,   10.5,   11.3,   11.3,   10.8,   10.3,   12.1,   15.4,   17.1,   19.1,   20.1,   22.0,   21.2,   19.1,   20.0,   18.5,   18.5,   18.4,   18.9,   20.4,   18.3,   16.2,   16.3,   17.1,   18.0,   17.7,   18.0,   17.6,   19.3,   21.5,   21.7,   20.0,   18.7,   19.8,   20.4,   23.5,   24.9,   27.5,   29.9,   28.1,   25.8,   26.9,   27.7,  999.0,   26.5,   27.1,   28.9,   30.7,  999.0,  999.0,   26.1,   25.9,   28.9,   29.8,   26.8,   25.5,   24.3,   22.5,   19.6,   16.4,   13.5,  999.0,   16.1,   17.1,  999.0,   16.3,   17.3,   18.1,   12.2,   11.7,    9.5,   10.2,    6.7,    5.7,    4.9,    5.8,    4.4,    3.6,    2.6,  999.0,   -0.4,   -1.9,  999.0,    1.5,  999.0
2003/06/13 06:45,   13.7,   12.7,   12.4,   12.0,   12.1,   13.7,   15.0,   13.2,   13.4,   10.8,   10.6,   10.5,   10.3,    9.1,    9.8,    9.3,    9.5,   11.1,   11.1,   11.2,   12.0,   14.1,   14.8,   14.3,   12.5,   12.4,   11.4,   10.9,   10.7,   11.9,   12.3,   11.6,   10.5,    9.9,    9.3,    9.1,    9.8,   11.4,   12.0,   11.9,   11.3,   13.0,   15.4,   17.7,   19.2,   20.5,   22.5,   23.1,   20.6,   19.5,   19.7,   18.8,   18.6,   19.9,   20.6,   18.3,   16.2,   17.8,   17.7,   18.3,   18.3,   19.2,   19.2,   21.3,   21.4,   21.2,   21.1,   19.4,   21.0,   24.2,   25.1,   28.5,   27.4,   27.4,   28.1,   23.7,   26.1,   27.1,   28.7,   25.0,   28.7,   29.9,   29.4,   25.8,  999.0,  999.0,   26.8,   27.7,   28.6,   25.0,   24.2,   21.9,   20.6,   18.1,   13.5,   12.2,   12.6,   14.6,   16.6,   15.0,   14.5,   15.4,   16.2,   13.8,   10.0,    8.4,    9.0,    6.5,    5.5,    4.7,    5.5,    6.1,    6.0,    4.1,    1.7,    0.0,   -2.2,   -1.4,    4.1,   -4.2
2003/06/13 06:55,   12.3,   12.5,   11.6,   11.9,   12.2,   12.8,   12.4,   12.5,   12.3,    9.6,   10.1,   10.6,   10.7,   10.1,    9.4,    9.6,    8.6,   10.1,   11.8,   11.5,   13.1,   14.4,   15.2,   14.6,   12.0,   12.1,   12.4,   11.6,   11.5,   12.4,   13.2,   12.5,   11.6,   10.7,   10.2,    8.8,    9.2,   10.7,   11.0,   11.0,   11.2,   13.3,   15.7,   17.6,   19.0,   19.5,   21.3,   22.2,   22.6,   20.7,   19.5,   18.4,   18.5,   18.2,   19.0,   16.9,   16.2,   18.1,   16.6,   17.9,   18.5,   18.9,   19.5,   21.0,   22.1,   21.2,  999.0,  999.0,   21.0,   24.1,   26.1,   26.2,   24.8,   27.2,  999.0,   23.4,   24.0,   27.1,   23.6,   25.4,   27.4,  999.0,  999.0,  999.0,   25.1,  999.0,   25.5,   25.9,   26.4,   24.6,   23.9,   20.8,   18.5,   15.7,   11.9,   10.9,   11.9,   13.9,   16.2,   15.5,   14.6,   16.2,   15.3,   12.3,   11.2,    9.5,    8.7,    6.5,    8.7,    7.0,    7.2,    5.7,    6.1,    5.7,    1.2,    1.7,   -2.3,  999.0,    2.1,  999.0
2003/06/13 07:05,   10.9,   11.0,   10.9,   11.2,   12.4,   12.5,   12.8,   12.3,   12.7,   11.2,    9.6,   11.1,   12.1,   10.4,    8.8,    8.8,    8.1,    9.5,   10.4,   10.6,   11.8,   13.7,   14.5,   14.4,   13.5,   13.2,   14.3,   14.1,   12.8,   13.3,   12.9,   12.9,   12.3,   12.5,   12.3,   11.5,   11.0,   12.6,   11.6,   11.4,   13.2,   15.6,   16.9,   18.0,   19.2,   20.2,   20.9,   23.1,   22.7,   22.5,   20.8,   19.8,   19.7,   19.9,   18.0,   15.5,   16.7,   18.2,   17.7,   17.4,   18.6,   18.6,   18.4,   19.1,   20.9,   19.4,   20.8,   19.2,   21.0,   22.4,   25.2,   27.0,   23.5,   25.7,   22.1,   21.4,   22.3,   24.6,   23.8,   24.6,   25.1,  999.0,  999.0,  999.0,   25.2,   23.9,   24.5,   26.6,   24.7,   23.0,   23.0,   21.8,   18.2,   14.3,   11.6,   10.8,   11.0,   12.8,   15.2,   14.1,   15.0,   15.2,   14.7,   12.5,   10.9,  999.0,    8.2,    7.2,    7.1,    8.1,    5.0,    5.7,    6.6,    3.3,    2.2,    2.8,   -1.2,  999.0,    3.4,  999.0
2003/06/13 07:15,   10.5,   10.3,   10.6,    9.9,   11.4,   12.7,   13.2,   13.2,   12.8,   13.6,   11.0,   10.9,   10.8,   10.7,    9.1,    8.8,    9.0,    9.8,   11.4,   10.7,   11.4,   13.0,   13.4,   13.5,   14.5,   14.2,   12.6,   14.1,   14.1,   14.1,   15.0,   13.3,   13.4,   11.4,   11.3,   11.5,   12.0,   10.6,   11.1,   11.1,   12.4,   14.1,   14.1,   16.1,   17.4,   19.3,   19.5,   21.1,   21.5,   20.8,   20.4,   18.8,   18.5,   18.5,   18.1,   15.2,   15.5,   15.2,   17.3,   17.8,   17.8,   18.2,   19.5,   19.2,   19.7,   19.6,  999.0,   18.7,   20.9,   22.9,   25.1,   22.5,   24.0,   25.3,   20.7,   19.9,   21.5,   22.4,  999.0,   23.9,   26.4,  999.0,  999.0,   23.2,   23.6,   24.6,   25.3,   26.6,   23.9,   23.8,   22.9,   20.1,   18.2,   15.9,   12.8,   11.2,  999.0,   12.8,   15.1,   14.4,   15.6,   16.5,   15.6,   13.2,   11.1,   11.1,   11.2,    9.5,    9.4,    8.0,    6.8,    5.0,    6.0,    1.9,    2.0,    1.5,   -1.5,    3.3,  999.0,  999.0
2003/06/13 07:25,   11.1,   10.2,    9.9,    9.4,    9.9,   10.9,   11.5,   11.6,   12.1,   11.8,   10.8,   10.6,   10.4,    8.5,    7.8,    8.7,    8.3,    9.3,   11.0,   11.0,   11.6,   12.1,   13.0,   13.3,   14.1,   14.8,   13.9,   13.5,   13.5,   13.2,   14.1,   12.5,   11.6,   10.8,   11.2,   11.5,   11.8,   13.0,   13.6,   13.4,   13.7,   15.5,   14.8,   16.5,   17.6,   19.2,   18.9,   20.7,   21.0,   20.6,   21.3,   20.9,   18.7,   18.2,   17.6,   16.2,   16.2,   17.0,   17.6,   16.1,  999.0,   19.8,   19.4,   19.1,  999.0,  999.0,  999.0,   20.5,   23.0,   22.8,   23.8,   23.1,  999.0,  999.0,  999.0,   20.4,  999.0,  999.0,  999.0,   24.9,   25.3,   26.8,   24.5,  999.0,  999.0,   23.0,   23.5,   25.7,   21.8,  999.0,  999.0,   18.8,   18.2,   16.9,   11.4,   12.1,  999.0,   13.6,   15.6,   14.7,   15.0,   14.7,   16.2,   15.1,   13.2,  999.0,   10.8,   11.2,  999.0,  999.0,  999.0,    3.8,    5.2,    3.4,    5.0,    4.7,   -3.2,    6.0,    9.7,  999.0
2003/06/13 07:35,   10.6,   10.5,   10.5,    9.9,    8.7,    9.5,    9.9,   11.0,   10.2,   10.6,   11.7,   10.9,   10.9,    9.6,    7.9,    7.4,    7.8,    7.2,    9.1,    9.4,   10.1,   10.9,   12.5,   14.5,   15.9,   16.9,   17.1,   12.3,  999.0,  999.0,   16.3,   16.6,   10.9,   12.2,   13.3,   13.3,   14.3,   15.2,   15.4,   15.8,   13.4,   14.5,   14.2,   15.6,   16.3,   16.6,   18.1,   19.0,   20.6,   19.1,   20.7,   21.2,   19.0,   18.3,   17.3,   14.3,   14.4,   15.2,   16.5,   17.6,   19.4,   19.2,   17.2,   18.6,   17.7,   19.2,   18.5,   18.9,   21.4,   20.8,   22.4,   24.4,   23.3,   24.6,   24.0,   23.8,   24.0,   24.0,   22.4,   24.4,   24.8,   24.6,   25.1,   24.4,  999.0,  999.0,   24.1,  999.0,  999.0,   24.2,   21.3,   21.0,   19.7,   17.7,   15.0,  999.0,   11.8,   14.2,   15.9,   14.7,   14.0,   15.0,   14.4,   13.2,   11.3,   10.9,   11.2,   10.2,    9.7,  999.0,    5.0,    5.6,    4.6,    2.5,    2.4,    0.7,  999.0,    0.4,  999.0,  999.0
2003/06/13 07:45,   11.4,   11.5,   11.1,    8.7,    8.8,    9.7,   10.2,   10.2,   10.0,    9.5,    9.7,   10.6,   11.0,    9.3,    8.9,    7.2,    7.5,    7.4,    7.1,    8.0,    9.5,   10.0,   10.5,   12.4,   13.9,   15.3,   15.6,   15.7,  999.0,  999.0,   14.1,   15.1,   13.1,   12.1,   13.3,   14.3,  999.0,   15.1,   16.9,   17.0,   13.7,   15.6,   15.3,   16.2,   16.5,   18.6,   19.7,   20.6,   21.2,   21.4,   21.9,   22.8,   21.8,   20.5,   18.5,   16.6,   14.2,   15.3,   14.6,   15.8,   17.8,   17.8,   16.2,   17.1,   18.9,   18.9,   18.6,   20.2,   21.8,   21.9,   23.2,   20.9,   24.5,   23.2,   22.8,   19.5,   23.5,   24.0,   24.3,   25.1,   24.0,   24.8,   25.1,   27.3,  999.0,   20.1,  999.0,   24.1,   24.5,   21.3,   22.8,   23.3,   21.2,   19.9,   16.2,   13.6,  999.0,   14.0,   16.1,   15.3,   15.6,  999.0,   15.4,   12.5,    7.3,    8.9,    9.8,    8.7,  999.0,  999.0,    6.7,    6.1,    3.0,  999.0,  999.0,    1.1,    0.3,  999.0,  999.0,  999.0
2003/06/13 07:55,    9.6,    9.9,    9.7,    9.2,    9.8,    9.9,   10.5,   10.0,    9.8,    9.8,   10.4,   10.3,   10.1,   10.0,    8.4,    7.2,    6.5,    6.4,    6.9,    7.6,    8.0,    9.4,   10.2,   11.6,   12.3,   13.2,   14.6,   14.6,   14.9,   14.4,   13.7,   14.3,  999.0,  999.0,  999.0,  999.0,   15.1,   16.2,   18.2,   16.5,   15.2,   15.7,   16.2,   18.4,   17.6,   20.3,   20.6,   19.3,   19.0,   19.8,   18.2,   19.5,   20.8,   19.8,   16.1,   14.8,   14.1,   14.4,   17.4,   18.3,   19.4,   20.6,   19.9,   19.2,   20.0,   20.1,   22.5,   21.1,   21.4,   19.2,   18.0,  999.0,  999.0,   20.2,   20.4,   21.6,   24.3,   28.2,   26.3,   26.1,   26.8,   24.5,   22.8,   23.7,  999.0,  999.0,   26.0,   24.1,   23.8,  999.0,   21.1,   24.8,   21.6,   17.9,   17.6,   13.1,   14.9,   12.7,   16.9,   16.1,   16.5,  999.0,   16.5,   15.3,  999.0,   10.5,   12.2,  999.0,  999.0,  999.0,  999.0,    6.9,    6.6,    3.2,  999.0,  999.0,   -2.6,  999.0,  999.0,  999.0
2003/06/13 08:05,    9.9,   10.1,    9.2,    7.9,    8.2,    9.6,    9.7,    9.5,    9.9,   10.4,   11.2,   10.3,    9.1,    8.8,    8.1,    7.9,    6.8,    7.1,    7.8,    8.2,    8.6,    8.5,   10.6,   11.5,   11.3,   13.8,   15.1,   15.4,   16.2,   16.1,   13.4,   14.9,   16.8,   13.7,   12.9,   15.9,   17.6,   16.8,   15.6,   17.6,   17.9,   17.0,   16.3,   16.4,   15.9,   16.4,   17.2,   16.5,   15.7,   15.9,   15.7,   14.8,   15.5,   15.3,   16.3,   16.8,   16.9,   17.3,   19.1,   18.4,   18.1,   18.5,   19.4,   20.4,   18.6,   19.4,   19.7,   18.9,   18.9,   19.2,   20.0,   22.1,   22.4,   21.6,   23.5,   24.1,   26.2,   26.0,   27.4,   28.9,   26.8,   26.6,   27.6,   25.3,   22.4,   21.1,   20.5,   22.5,  999.0,   20.3,   18.7,   19.6,   20.7,   18.8,   16.2,   14.2,    7.4,  999.0,   17.8,   17.3,  999.0,  999.0,   15.1,   14.8,   11.5,   10.7,   10.2,    9.4,    9.6,  999.0,    8.0,    7.5,    9.4,    2.0,    4.8,  999.0,   -4.7,  999.0,  999.0,  999.0
2003/06/13 08:15,   10.8,   10.7,    9.8,    9.3,    8.3,    8.7,    8.6,    8.2,    8.1,    9.5,   10.5,   10.7,    8.8,    7.9,    8.4,    7.3,    7.5,    7.0,    7.4,    7.7,    8.2,    8.9,   10.6,   11.5,   12.8,   13.9,   14.4,   14.4,   13.7,   14.4,   14.0,   10.5,   12.5,   16.6,   14.5,   14.2,   14.6,   16.2,   16.5,   14.8,   13.8,   13.1,   12.5,   13.5,   14.8,   15.1,   16.1,   16.3,   16.0,   16.5,   16.2,   17.0,   17.7,   18.4,   19.7,   19.7,   20.4,   20.3,   20.9,   23.0,   22.9,   22.2,   22.2,   21.5,   20.9,   20.9,   20.2,   21.0,   19.8,   20.4,   19.6,   21.8,   20.5,   25.3,   20.1,   20.5,   23.5,   26.8,   21.6,   21.7,   23.2,   25.1,   28.0,   28.4,   25.9,   26.6,   25.1,   21.9,   21.8,   16.1,   16.3,   17.0,   17.6,   18.2,   16.0,   15.0,  999.0,   15.3,   15.4,   17.3,  999.0,  999.0,   15.6,   14.0,  999.0,    8.6,    8.6,   10.0,  999.0,  999.0,    9.0,    8.2,    6.9,    3.9,    0.9,  999.0,  999.0,  999.0,  999.0,  999.0
2003/06/13 08:25,   10.5,   10.1,    9.4,    8.2,    8.3,    7.9,    8.3,    8.3,    9.6,   11.0,   11.4,   10.5,    8.0,    8.0,    8.2,    8.3,    7.9,    8.8,    9.0,    8.9,    9.2,   10.1,   10.7,   11.5,   11.3,   11.6,   12.7,   12.8,   12.9,   13.9,   14.4,   13.7,   12.6,   12.1,   11.8,   11.4,   11.6,   11.0,   10.6,   10.0,   10.5,   11.8,   11.2,   13.2,   15.2,   17.0,   18.5,   20.2,   23.5,   24.2,   23.1,   23.6,   22.4,   22.9,   23.7,   22.9,   22.6,   22.9,   21.2,   21.4,   22.1,   22.9,   23.5,   23.9,   23.7,   24.5,   22.9,   23.8,   22.2,   22.2,   21.6,   20.5,   20.3,   22.5,   22.2,   23.0,   24.0,   19.1,   20.6,   22.1,   25.0,   27.5,   29.6,   27.5,   24.8,   26.5,   25.0,   24.1,   20.4,   19.2,   15.2,   13.9,   15.8,   16.4,   17.4,   13.0,   10.7,   11.0,   16.3,    8.5,   15.2,  999.0,   13.1,   12.6,   11.4,    7.6,    9.5,    9.5,    8.3,  999.0,    8.0,    4.8,   -8.2,  999.0,  999.0,  999.0,  999.0,  999.0,  999.0,  999.0
2003/06/13 08:35,    9.2,    9.8,    9.5,    8.6,    9.1,    9.3,    8.5,    8.5,    8.2,    9.0,   10.4,    7.5,    6.7,    7.2,    8.7,    9.6,    8.3,    7.9,    8.9,   10.0,   11.7,   13.7,   12.5,   12.4,   12.1,   12.8,   12.9,   13.1,   13.1,   12.7,   13.2,   13.9,   13.8,   12.9,   11.4,    9.3,    8.8,    6.0,    7.9,    9.0,   13.2,   16.7,   17.7,   21.2,   21.2,   19.8,   20.8,   20.8,   21.0,   22.7,   22.4,   21.9,   21.9,   21.7,   22.8,   23.6,   23.5,   23.8,   23.3,   22.9,   23.3,   22.4,   22.3,   22.9,   22.8,   23.5,   22.5,   23.7,   22.4,   21.0,   22.0,   21.0,   20.6,   19.4,   18.3,   18.4,   18.6,   20.1,   21.1,   22.3,   23.8,   26.1,   25.9,   28.0,   20.3,   25.4,   21.8,   20.2,   20.1,   20.0,   16.7,   17.0,   15.1,   14.7,   15.7,   16.3,   15.0,   15.3,   17.5,   19.1,   13.8,   14.3,   13.0,   13.2,   12.8,  999.0,   10.4,    7.8,    9.0,   10.0,    7.5,    6.7,    5.0,    1.4,  999.0,  999.0,  999.0,  999.0,  999.0,  999.0
2003/06/13 08:45,    9.0,    8.8,    8.2,    8.5,    8.5,    8.1,    8.1,    8.2,    8.8,    9.1,    8.7,    6.9,    6.1,    6.0,    6.9,    7.5,    6.5,    7.4,    8.8,   10.5,   10.5,   11.5,   11.6,   10.9,   11.3,   11.5,   11.9,   11.6,   11.1,   10.4,    9.6,    9.7,    9.7,    8.8,    7.7,    7.2,    5.6,    6.8,    4.9,    1.4,    0.7,    4.8,   15.2,   15.1,   16.8,   18.5,   21.7,   23.7,   23.7,   23.3,   24.0,   20.6,   21.5,   24.4,   23.1,   22.7,   21.5,   20.7,   20.6,   20.0,   20.0,   21.5,   23.1,   22.2,   21.8,   22.2,   22.9,   23.8,   23.9,   26.7,   23.5,   24.4,   22.9,   20.0,   21.0,   19.9,  999.0,   19.7,  999.0,   20.8,   23.8,  999.0,   19.7,   28.7,  999.0,  999.0,  999.0,   24.9,   20.7,   21.0,   17.7,   17.7,   15.5,   14.2,   11.9,    4.9,  999.0,  999.0,   15.3,  999.0,  999.0,  999.0,   15.7,   12.6,  999.0,  999.0,  999.0,    7.3,    5.0,  999.0,    8.7,    5.7,    5.6,    3.3,    4.6,  999.0,   -4.1,  999.0,  999.0,  999.0
2003/06/13 08:55,    7.4,    8.4,    7.6,    6.9,    6.4,    7.4,    7.7,    8.0,    9.2,   10.0,    9.2,    8.9,    7.9,    6.7,    7.0,    7.6,    8.7,    9.5,   11.6,   11.0,   11.2,   12.0,   11.7,   11.1,   12.1,   12.0,   12.6,   12.7,   12.2,   10.2,   11.7,   11.1,   13.0,   12.5,   11.4,    7.4,    9.8,   10.2,    8.6,   11.0,   14.5,   13.8,   15.9,   15.8,   15.9,   16.4,   17.2,   17.5,   18.3,   17.8,   18.3,   18.5,   19.5,   20.0,   20.6,   19.7,   21.1,   21.5,   21.1,   21.0,   20.8,   23.6,   22.0,   22.2,   21.8,   23.5,   24.6,   24.6,   24.8,   25.7,   24.8,   23.2,   21.9,   19.3,   19.2,   18.6,   19.3,   20.4,   20.7,   22.1,   23.7,   27.8,   28.5,   29.9,  999.0,   23.2,   24.3,   25.3,   21.0,   20.0,   19.6,   18.1,   14.7,   14.0,   14.9,   13.0,   12.9,   16.1,   14.6,   16.6,   11.8,  999.0,   15.9,   15.2,   10.9,    9.6,   10.9,    9.4,    4.3,    9.3,    6.4,    6.7,    4.3,  999.0,    1.8,   -2.7,   -2.1,   -4.7,  999.0,  999.0
2003/06/13 09:05,    7.1,    9.7,    8.5,    8.1,    9.2,    8.7,    7.4,    7.1,    7.0,    7.0,    9.0,    9.1,    9.5,    7.9,    6.8,    6.0,    6.5,    8.8,   11.8,   12.7,   12.6,   12.3,   12.6,   12.8,   11.9,   10.9,   10.9,    8.1,    7.1,    6.9,    6.3,    7.4,    8.2,   10.1,   11.7,   12.4,   13.5,   14.3,   13.0,   12.3,   12.6,   13.5,   13.0,   12.3,   15.0,   13.4,   14.2,   14.4,   14.7,   14.1,   14.7,   14.6,   13.1,  999.0,    6.5,  999.0,   11.6,    5.7,    4.7,    8.2,   10.4,    9.9,   11.9,    9.8,  999.0,  999.0,  999.0,  999.0,  999.0,  999.0,  999.0,  999.0,  999.0,  999.0,  999.0,  999.0,   22.5,   21.9,  999.0,  999.0,   23.3,   30.5,   26.6,  999.0,   -2.2,  999.0,   16.4,   22.9,  999.0,  999.0,  999.0,   17.1,   16.3,   13.9,   12.6,   12.1,   10.2,  999.0,  999.0,   12.2,  999.0,  999.0,   14.1,   13.7,  999.0,  999.0,    9.8,  999.0,  999.0,  999.0,   10.1,  999.0,  999.0,  999.0,  999.0,  999.0,  999.0,  999.0,  999.0,  999.0
2003/06/13 09:15,    6.9,    7.3,    6.7,    6.8,    7.1,    7.3,    7.5,    7.1,    6.3,    6.3,    6.1,    6.5,    6.9,    7.1,    7.2,    7.9,    6.8,    9.6,   10.8,    9.9,   11.2,   10.1,    8.8,    8.7,    7.0,    5.5,    5.3,    5.0,    6.2,    7.6,    8.3,   10.0,   12.1,   12.2,   14.7,   15.8,   14.9,   15.6,   15.7,   14.4,   20.1,  999.0,   18.1,   18.1,  999.0,   14.9,   15.2,   13.8,   16.2,   17.0,   16.7,   15.1,   17.9,  999.0,   16.2,   13.6,   14.5,   13.6,  999.0,   15.2,   13.2,   13.4,   12.8,  999.0,   10.8,  999.0,  999.0,  999.0,  999.0,  999.0,   22.7,  999.0,   19.6,  999.0,   16.1,   17.7,   16.9,   20.4,   19.2,  999.0,   21.6,   25.0,  999.0,    4.3,  999.0,  999.0,   23.2,   23.0,   14.9,   21.4,   18.6,   16.1,   14.0,  999.0,   15.2,   11.6,   10.8,  999.0,   14.8,   -2.1,  999.0,  999.0,   16.5,   14.2,    8.7,  999.0,   -3.3,    6.4,  999.0,  999.0,    7.7,    6.4,    4.8,  999.0,  999.0,  999.0,   -4.0,   -0.5,    2.7,  999.0
2003/06/13 09:25,    6.6,    7.4,    6.8,    7.0,    7.5,    7.1,    6.0,  999.0,    4.8,    7.8,  999.0,  999.0,   10.1,   12.6,    9.0,    9.7,   10.5,   10.6,   15.0,   18.6,   12.5,  999.0,   11.4,    9.2,    8.8,    9.3,   10.0,   11.7,   10.3,   20.3,   22.0,   19.1,   15.2,   18.8,   15.7,   15.1,   14.5,   17.7,   16.0,   16.5,   16.2,   15.0,   16.7,   15.7,   17.6,   15.8,   16.7,   17.9,   18.8,   19.5,   20.8,   20.7,   18.2,   17.6,   16.9,   16.1,   16.3,   14.2,   13.2,   12.7,   12.9,   12.5,   10.9,   14.0,   12.6,   12.0,   11.8,    8.2,  999.0,    8.4,   10.0,    9.6,   10.6,  999.0,  999.0,    9.3,   12.5,  999.0,   16.7,   14.8,   18.5,   22.3,  999.0,   25.7,  999.0,  999.0,  999.0,   25.4,   24.0,   20.2,   22.6,   20.7,   17.0,   12.1,  999.0,   -3.7,   10.8,  999.0,   -2.3,  999.0,  999.0,  999.0,    9.9,   10.5,    6.1,    8.2,  999.0,   -0.1,   -2.1,   10.1,    4.6,    4.1,    5.2,  999.0,  999.0,  999.0,   -2.6,  999.0,  999.0,    0.1
2003/06/13 09:35,    6.2,    5.2,    4.4,    4.0,    4.5,    5.2,    4.0,    3.7,    2.7,    4.9,    6.2,    6.5,    6.9,    6.7,    7.4,    6.0,    6.8,    8.3,    7.6,    7.0,    8.6,    8.8,   10.7,   13.5,   16.7,   13.6,   16.0,   19.0,   19.6,   19.7,   17.8,   14.2,   13.9,   13.2,   11.0,   12.6,   12.7,   12.0,   12.6,   12.9,   12.4,   12.7,   12.5,   12.8,   13.4,   13.1,   15.1,   18.7,   20.2,   20.4,  999.0,  999.0,   17.9,   18.4,   16.1,   15.6,   15.1,   15.5,   15.0,   14.4,   15.1,   14.2,   17.6,   11.4,  999.0,   12.3,   11.8,   11.3,   11.5,    6.7,   13.1,   12.0,  999.0,    4.0,   10.3,    7.0,   12.9,    9.0,  999.0,  999.0,  999.0,  999.0,  999.0,  999.0,   -1.3,  999.0,  999.0,  999.0,   24.8,  999.0,   17.6,   17.6,   15.4,   13.4,    4.4,    6.1,   -0.5,  999.0,  999.0,   -3.1,  999.0,  999.0,  999.0,  999.0,   -1.9,  999.0,  999.0,   -3.7,   -1.4,  999.0,  999.0,    4.5,    5.7,   -3.3,   -1.5,  999.0,   -4.6,   -2.3,   -0.2,   -0.2
2003/06/13 09:45,    9.3,    7.3,    7.4,    5.2,    4.1,    4.7,    4.5,    6.1,    4.4,    6.7,    4.6,    5.4,    6.3,    5.0,    5.1,    6.7,    7.8,    9.8,   12.4,   14.8,   11.8,   12.5,   13.1,   13.7,   14.7,   14.6,   12.5,   13.0,   13.9,   16.9,   18.2,   15.5,   13.8,   12.6,   10.7,   12.6,   14.5,   15.5,   15.0,   13.7,   11.9,   12.0,   11.9,   11.3,   12.4,   14.1,   14.7,   17.1,   17.8,   17.8,   16.6,   17.2,   17.3,   17.0,   16.8,   17.8,   17.5,   16.1,   16.7,   16.2,   15.2,   15.8,   16.3,   15.1,   14.3,   14.1,   13.8,   13.3,    3.4,    1.1,    0.4,   -1.8,   -0.4,   -1.0,  999.0,    0.4,  999.0,    0.9,  999.0,    1.8,  999.0,  999.0,  999.0,  999.0,  999.0,  999.0,  999.0,   23.4,   23.9,  999.0,   21.9,   20.1,  999.0,  999.0,    1.9,    0.6,    1.2,  999.0,  999.0,   -0.4,    1.9,  999.0,  999.0,  999.0,  999.0,    3.5,  999.0,   -6.3,   -0.3,  999.0,  999.0,    4.3,    6.8,  999.0,  999.0,  999.0,    8.8,    0.3,  999.0,    0.3
2003/06/13 09:55,   10.3,   11.1,    9.6,    8.8,    9.5,    9.0,    9.8,    9.2,    8.5,    7.1,    6.8,    5.6,    6.7,    9.3,   10.3,   11.4,   12.7,   13.3,   14.3,   14.5,   13.7,   14.1,   14.5,   15.3,   14.3,   14.5,   13.4,   13.9,   16.0,   18.3,   19.0,   16.3,   13.5,   12.2,   12.5,   13.6,   15.4,   16.2,   16.1,   14.2,   13.8,   13.3,   13.9,   14.8,   15.8,   17.3,   17.3,   19.4,   21.1,   21.3,   12.8,   18.5,   18.6,   18.1,   17.1,   16.6,   16.7,   16.0,   15.1,   14.5,   14.4,   14.4,   15.2,   16.2,    7.5,    2.9,   16.0,   13.6,    4.0,    3.6,    1.2,    0.8,    1.8,    0.1,  999.0,    0.8,    3.6,    3.8,   -2.5,  999.0,  999.0,  999.0,    3.5,  999.0,  999.0,    3.0,  999.0,  999.0,   21.9,  999.0,  999.0,  999.0,   14.6,    5.2,    0.9,    1.4,    0.1,  999.0,  999.0,  999.0,  999.0,  999.0,  999.0,  999.0,   -0.7,  999.0,  999.0,  999.0,  999.0,  999.0,  999.0,    4.3,    4.2,    0.5,  999.0,  999.0,  999.0,   -0.9,    1.1,  999.0
2003/06/13 10:05,   10.7,   11.0,   11.2,   10.6,   10.0,    9.1,    9.1,    7.4,    7.0,    6.5,    6.9,    7.7,    8.5,    9.7,   10.8,   11.2,   11.5,   13.2,   12.7,   13.2,   13.5,   14.8,   14.8,   16.3,   15.1,   15.4,   15.1,   16.3,   19.0,   19.6,   20.9,   17.1,   12.8,   11.5,   13.4,   13.5,   13.9,   14.9,   15.8,   15.7,   15.0,   15.5,   16.8,   17.5,   18.3,   19.5,   17.2,   19.5,   20.3,   19.2,  999.0,   17.6,   19.0,   17.9,   18.2,   15.9,   16.0,   15.5,   14.8,   15.1,   14.3,   13.3,   14.3,   13.7,   15.2,   14.7,   14.4,   16.5,  999.0,  999.0,   -1.8,   -2.1,    0.4,   -1.7,  999.0,  999.0,  999.0,  999.0,  999.0,  999.0,  999.0,  999.0,  999.0,  999.0,  999.0,  999.0,  999.0,  999.0,   21.1,  999.0,   18.6,  999.0,  999.0,   16.9,  999.0,   -0.2,   -0.9,  999.0,  999.0,    0.1,  999.0,  999.0,   13.1,   11.9,  999.0,  999.0,  999.0,   17.3,  999.0,  999.0,  999.0,    2.4,   -5.9,   -3.5,  999.0,  999.0,    0.4,   -2.6,  999.0,  999.0
2003/06/13 10:15,   11.2,   10.2,    9.9,    9.7,    9.8,    8.8,    8.2,    7.4,    7.6,    7.1,    7.5,    7.7,    9.3,   10.8,   13.1,   13.9,   14.1,   13.0,   12.7,   12.8,   13.4,   13.6,   14.4,   15.9,   14.5,   15.4,   16.2,   16.7,   19.3,   19.9,   21.3,   18.6,   12.4,   12.2,   13.4,   14.2,   15.4,   15.2,   14.9,   16.5,   16.8,   17.3,   18.3,   18.4,   19.8,   17.4,   17.9,   19.9,   21.1,   20.8,  999.0,  999.0,   18.5,   18.2,    9.7,  999.0,   15.3,   13.9,  999.0,  999.0,  999.0,  999.0,  999.0,  999.0,  999.0,  999.0,  999.0,  999.0,  999.0,    1.3,  999.0,   -4.6,  999.0,   -2.1,  999.0,  999.0,  999.0,   -1.3,  999.0,  999.0,  999.0,  999.0,  999.0,  999.0,  999.0,  999.0,   20.6,   24.2,  999.0,  999.0,  999.0,  999.0,  999.0,   14.7,   13.5,    5.2,   -1.0,  999.0,  999.0,  999.0,  999.0,  999.0,  999.0,   10.7,  999.0,  999.0,  999.0,   -2.8,  999.0,  999.0,  999.0,    5.7,    3.7,   -3.0,  999.0,   -1.9,  999.0,  999.0,   -2.4,  999.0
2003/06/13 10:25,   10.9,    9.9,    8.8,    8.5,    6.3,    8.2,    9.0,    7.8,    7.9,    8.2,    9.5,    9.9,    9.6,   10.6,   13.4,   15.5,   14.1,   13.8,   13.7,   14.2,   12.2,   12.5,   14.4,   15.1,   13.7,   15.2,   15.7,   16.9,   17.9,   19.4,   20.3,   20.0,   14.1,   13.3,   13.3,   13.9,   14.1,   15.3,   14.1,   14.6,   15.0,   15.8,   15.7,   16.8,   18.2,   13.3,   17.1,   18.7,   19.8,   18.7,   18.5,  999.0,   14.0,   18.1,   17.0,   14.6,  999.0,   11.1,   12.1,  999.0,   13.5,  999.0,  999.0,  999.0,    3.5,  999.0,  999.0,  999.0,  999.0,  999.0,  999.0,   -0.9,  999.0,  999.0,  999.0,   16.6,  999.0,    9.3,  999.0,  999.0,  999.0,  999.0,  999.0,  999.0,  999.0,  999.0,  999.0,  999.0,  999.0,  999.0,  999.0,  999.0,  999.0,  999.0,  999.0,  999.0,    6.1,  999.0,  999.0,  999.0,  999.0,  999.0,  999.0,  999.0,   12.8,  999.0,  999.0,  999.0,  999.0,  999.0,  999.0,    5.9,    4.6,    3.4,  999.0,  999.0,  999.0,    0.3,  999.0,  999.0
2003/06/13 10:35,   11.0,   10.1,    8.5,    8.7,    8.2,    8.5,    9.0,    9.6,    9.0,    9.5,    9.7,    9.9,   10.3,   12.0,   13.9,   15.7,   15.1,   14.1,   14.2,   12.5,   11.5,   13.0,   14.9,   13.3,   14.3,   16.4,   16.2,   17.5,   19.1,   19.9,   20.3,   19.9,   16.8,   14.3,   15.5,   14.3,   14.8,   14.1,   14.0,   14.4,   15.1,   14.7,   15.8,   17.0,   18.7,   16.4,   16.8,   18.1,   18.2,   18.5,   16.2,  999.0,   13.9,   18.3,   18.7,   17.2,   14.7,   15.0,   14.7,   15.7,  999.0,  999.0,  999.0,  999.0,    1.7,  999.0,    0.4,  999.0,  999.0,  999.0,  999.0,  999.0,  999.0,  999.0,  999.0,  999.0,  999.0,  999.0,  999.0,  999.0,  999.0,  999.0,  999.0,  999.0,  999.0,  999.0,   24.8,  999.0,  999.0,  999.0,   19.4,  999.0,  999.0,   14.1,  999.0,   11.6,   -0.6,  999.0,  999.0,   15.1,  999.0,   -0.3,  999.0,    9.6,   12.0,  999.0,  999.0,   10.1,   -1.4,  999.0,  999.0,    3.5,    6.5,  999.0,    4.8,  999.0,    6.6,  999.0,  999.0,  999.0
2003/06/13 10:45,   11.6,   10.9,    9.7,    9.4,    9.9,    8.2,    8.5,    7.8,    8.5,    8.5,    9.1,    9.4,   11.1,   13.0,   13.8,   15.2,   14.9,   13.1,   13.2,   11.8,   12.8,   13.6,   15.9,   13.8,   15.0,   17.4,   17.8,   17.7,   19.4,   19.9,   19.6,   19.2,   17.0,   15.4,   15.9,   16.6,   15.4,   14.2,   14.0,   14.7,   15.0,   15.9,   16.7,   18.0,   20.1,   17.5,   15.7,   16.5,   18.7,   19.1,   19.4,   17.5,  999.0,   18.2,   18.5,   16.8,   16.7,   15.6,  999.0,  999.0,   -1.5,   -0.5,  999.0,  999.0,  999.0,  999.0,   16.5,  999.0,    0.1,  999.0,  999.0,   -0.3,  999.0,  999.0,   18.0,   20.5,  999.0,  999.0,  999.0,  999.0,    1.2,  999.0,  999.0,  999.0,   12.7,  999.0,   20.0,   15.1,   22.6,  999.0,   16.9,   18.9,   17.5,  999.0,   14.8,  999.0,   -0.9,  999.0,  999.0,  999.0,  999.0,  999.0,  999.0,  999.0,   11.1,  999.0,  999.0,  999.0,  999.0,  999.0,  999.0,    4.8,    5.0,  999.0,  999.0,  999.0,  999.0,   -7.4,  999.0,  999.0
2003/06/13 10:55,   10.9,   11.0,   10.6,   10.8,   10.1,    9.6,    7.8,    7.6,    8.6,    8.1,    8.6,   10.0,   12.1,   13.4,   14.6,   14.7,   14.1,   11.6,   12.3,   11.8,   12.6,   14.8,   15.1,   14.5,   16.5,   17.8,   17.6,   18.0,   19.4,   18.6,   18.6,   18.9,   15.8,   14.5,   15.1,   16.2,   15.4,   15.2,   14.8,   14.5,   15.1,   15.7,   16.3,   17.1,   17.9,   16.9,   15.1,   16.7,   18.0,   18.2,   18.6,  999.0,  999.0,   16.9,   18.4,   18.1,   17.3,   16.4,  999.0,  999.0,  999.0,    4.6,    3.7,  999.0,  999.0,  999.0,  999.0,   14.8,  999.0,  999.0,  999.0,  999.0,  999.0,  999.0,   18.4,  999.0,  999.0,  999.0,  999.0,  999.0,  999.0,  999.0,  999.0,  999.0,  999.0,  999.0,  999.0,   21.3,   20.0,  999.0,   16.9,  999.0,   19.8,   13.7,   13.5,  999.0,  999.0,  999.0,  999.0,  999.0,  999.0,    2.1,  999.0,   11.2,   10.2,  999.0,   12.2,  999.0,    1.3,  999.0,  999.0,    4.5,    4.6,  999.0,    5.8,  999.0,  999.0,   -6.3,   -1.1,  999.0
2003/06/13 11:05,   12.1,   10.6,   10.9,   10.1,    9.1,    9.2,    8.9,    9.9,    9.0,    9.5,   10.2,   10.9,   13.4,   14.7,   15.1,   15.2,   15.2,   13.8,   14.1,   13.9,   14.8,   16.1,   15.6,   16.6,   17.6,   17.9,   17.9,   19.0,   19.0,   19.4,   19.3,   19.0,   17.0,   15.9,   15.8,   17.0,   15.9,   16.1,   15.3,   15.2,   16.6,   16.3,   16.6,   18.0,   18.2,   16.3,   14.8,   16.5,   17.9,   17.4,   16.0,  999.0,  999.0,   15.8,   16.1,   18.4,   17.1,   16.9,   15.3,   14.2,   14.5,   14.0,  999.0,  999.0,   13.8,   14.5,   15.4,   16.3,   16.1,   17.6,  999.0,  999.0,  999.0,  999.0,   18.3,   19.6,  999.0,   22.0,   25.5,  999.0,  999.0,  999.0,  999.0,  999.0,  999.0,  999.0,  999.0,   24.1,   21.8,   18.8,   17.3,   18.4,   19.7,   16.0,   13.8,   13.3,  999.0,  999.0,  999.0,  999.0,  999.0,  999.0,   13.4,   11.0,   10.1,   10.5,   11.2,  999.0,    8.8,    8.9,    5.9,    2.3,    2.6,  999.0,  999.0,  999.0,   -2.6,   -0.1,  999.0,  999.0
2003/06/13 11:15,   11.4,   10.6,   10.4,   10.2,    9.2,    9.5,   10.1,   10.7,   10.3,   11.1,   12.3,   12.7,   14.5,   14.9,   14.7,   13.6,   13.4,   14.0,   13.0,   12.8,   13.8,   15.0,   16.5,   18.2,   18.1,   17.4,   17.9,   18.9,   19.3,   19.2,   19.0,   18.6,   18.5,   17.2,   16.7,   18.0,   17.0,   16.5,   14.2,   15.2,   15.7,   15.7,   15.5,   16.8,   17.5,   16.5,   14.9,   16.3,   17.7,   16.5,   16.6,  999.0,  999.0,  999.0,   15.3,   17.2,   16.9,   14.9,   15.6,   14.5,   14.4,   14.2,    2.7,  999.0,   14.6,   16.8,  999.0,   16.5,   16.3,  999.0,  999.0,  999.0,  999.0,   15.3,   16.1,   18.6,   18.5,   21.8,   22.9,  999.0,    0.6,   18.8,  999.0,    3.9,  999.0,  999.0,   21.6,   24.6,   24.4,   18.9,   18.7,   19.4,   18.0,   19.8,   15.5,   12.1,    6.3,   11.1,  999.0,  999.0,  999.0,  999.0,   13.4,   11.5,    9.0,   11.3,   11.9,    5.2,   -0.9,    9.5,    6.2,    1.8,    2.3,  999.0,    1.9,  999.0,   -2.1,  999.0,  999.0,  999.0
2003/06/13 11:25,   11.1,   10.7,   10.5,    9.2,    8.9,    9.7,   10.3,   10.3,   10.1,   12.0,   12.7,   12.4,   12.5,   12.6,   11.7,   12.0,   12.7,   13.9,   12.9,   13.9,   14.7,   14.9,   16.7,   18.2,   18.2,   15.9,   17.1,   18.0,   18.3,   18.7,   18.9,   19.7,   18.9,   18.0,   15.4,   17.5,   16.1,   14.9,   14.6,   16.6,   15.9,   16.2,   16.7,   17.8,   17.9,   16.7,   15.8,   16.8,   17.7,   17.2,   19.1,  999.0,  999.0,  999.0,   18.9,   20.8,  999.0,   16.3,   16.9,  999.0,  999.0,  999.0,  999.0,    5.0,  999.0,  999.0,  999.0,  999.0,  999.0,  999.0,  999.0,    3.2,    4.4,  999.0,   18.8,  999.0,  999.0,  999.0,  999.0,    2.5,  999.0,    6.4,  999.0,  999.0,  999.0,  999.0,   23.4,   27.2,  999.0,  999.0,  999.0,  999.0,  999.0,  999.0,  999.0,   14.9,   12.8,  999.0,  999.0,  999.0,    3.1,  999.0,  999.0,  999.0,  999.0,  999.0,  999.0,  999.0,  999.0,  999.0,  999.0,    2.0,    1.7,  999.0,  999.0,  999.0,   -4.3,  999.0,  999.0,  999.0
2003/06/13 11:35,   10.2,   10.2,   10.7,   10.6,   10.2,   11.0,   11.4,   11.7,   11.4,   11.6,   12.2,   12.0,   12.3,   11.7,   11.3,   10.9,   12.3,   13.0,   12.2,   12.6,   13.4,   13.6,   15.5,   17.2,   16.6,   16.6,   16.6,   18.0,   18.7,   19.0,   18.9,   18.4,   19.8,   18.1,   16.0,   16.2,   16.6,   15.9,   14.9,   15.0,   16.2,   16.8,   17.9,   19.3,   20.9,   17.8,   17.9,   19.1,   17.9,   18.7,   17.9,  999.0,  999.0,  999.0,   19.1,   17.5,   11.2,   16.3,   14.2,   13.4,  999.0,  999.0,    3.0,  999.0,   16.3,  999.0,  999.0,  999.0,  999.0,  999.0,    4.0,    1.1,  999.0,  999.0,   18.2,  999.0,  999.0,  999.0,    7.6,  999.0,  999.0,    6.6,  999.0,  999.0,  999.0,  999.0,   23.0,   25.4,  999.0,  999.0,  999.0,   18.9,  999.0,  999.0,  999.0,   15.2,  999.0,  999.0,  999.0,  999.0,  999.0,  999.0,  999.0,  999.0,  999.0,  999.0,  999.0,  999.0,    3.1,  999.0,  999.0,  999.0,  999.0,  999.0,  999.0,  999.0,  999.0,  999.0,    0.6,  999.0
2003/06/13 11:45,   12.1,   11.6,   11.9,   12.0,   11.8,   11.3,   11.3,   10.8,   10.7,   10.4,   10.4,   10.2,   10.0,   10.0,   10.8,   11.9,   13.2,   12.7,   12.5,   13.7,   14.8,   16.1,   17.5,   17.3,   17.0,   17.0,   17.4,   18.1,   18.5,   19.6,   19.0,   20.5,   21.7,   18.0,   15.8,   16.1,   15.7,   16.3,   14.2,   14.6,   15.2,   15.7,   15.4,   17.0,   17.8,   16.8,   16.5,   17.4,   17.2,   16.6,   16.4,   14.9,  999.0,  999.0,   13.1,   17.6,   14.0,   14.6,   14.7,   14.2,   13.4,   12.1,  999.0,   13.0,   16.1,   17.8,  999.0,  999.0,  999.0,  999.0,  999.0,  999.0,  999.0,  999.0,   18.9,  999.0,   21.4,  999.0,  999.0,  999.0,  999.0,  999.0,  999.0,  999.0,  999.0,  999.0,   22.9,   23.8,   21.0,   18.4,  999.0,   20.0,   19.3,   21.8,  999.0,   13.2,  999.0,  999.0,  999.0,  999.0,   19.6,   16.8,   13.0,   10.5,  999.0,  999.0,  999.0,  999.0,   11.3,  999.0,  999.0,  999.0,  999.0,  999.0,  999.0,  999.0,  999.0,  999.0,  999.0,  999.0
2003/06/13 11:55,   12.4,   11.7,   11.2,   11.2,   12.0,   12.0,   11.2,   11.2,    9.7,   10.0,   10.2,   10.7,   11.7,   13.7,   13.5,   13.0,   13.2,   13.2,   12.6,   12.5,   13.8,   14.9,   16.5,   16.4,   16.4,   17.2,   15.3,   16.0,   16.4,   18.0,   18.3,   18.8,   19.5,   17.7,   15.3,   13.7,   14.1,   13.8,   13.6,   14.7,   15.0,   16.3,   14.9,   16.7,   17.3,   17.2,   17.7,   17.3,   16.8,   17.4,   17.1,  999.0,  999.0,  999.0,   17.0,  999.0,  999.0,   14.6,  999.0,  999.0,  999.0,  999.0,   14.4,   14.4,   17.2,  999.0,  999.0,   16.6,   17.6,  999.0,  999.0,  999.0,  999.0,  999.0,  999.0,   16.5,   21.3,   20.6,   19.0,  999.0,  999.0,  999.0,  999.0,  999.0,  999.0,  999.0,   21.6,   23.8,   20.6,   18.7,   17.7,   19.6,  999.0,  999.0,  999.0,   14.4,   12.9,   13.2,  999.0,  999.0,   16.3,   17.7,   14.5,   10.9,  999.0,  999.0,  999.0,   11.4,   11.4,   11.2,  999.0,  999.0,    3.5,  999.0,    4.0,  999.0,  999.0,  999.0,    4.2,  999.0
2003/06/13 12:05,   11.9,   11.0,   10.6,   11.2,   12.0,   11.6,   12.1,   11.8,   11.6,   12.4,   14.1,   14.7,   15.6,   14.7,   12.7,   13.1,   14.2,   14.6,   13.4,   12.9,   14.1,   15.1,   16.2,   16.8,   16.8,   17.0,   15.8,   16.9,   18.2,   18.2,   18.6,   20.0,   20.1,   17.2,   16.5,   14.4,   15.2,   14.0,   13.7,   14.8,   15.7,   15.6,   15.6,   16.8,   16.9,   17.5,   18.0,   17.7,   17.5,   18.0,   17.3,   18.0,   15.7,   16.4,   17.8,   15.7,   13.6,   14.2,   15.3,  999.0,  999.0,   13.6,   15.3,   16.2,  999.0,  999.0,   14.9,   15.8,   18.6,   17.9,  999.0,  999.0,  999.0,  999.0,   16.2,   17.8,   21.3,   19.3,   20.8,  999.0,  999.0,  999.0,   17.7,  999.0,  999.0,  999.0,   19.9,   22.0,   19.3,   16.3,   16.9,   18.6,   18.0,   19.8,  999.0,  999.0,   13.7,   12.3,  999.0,  999.0,   19.8,   20.3,   15.0,   13.2,  999.0,  999.0,  999.0,   10.7,    9.5,    8.4,    5.3,  999.0,    1.6,    3.4,  999.0,  999.0,  999.0,   -0.4,    3.8,  999.0
2003/06/13 12:15,   12.7,   12.3,   11.5,   11.4,   11.9,   11.9,   12.8,   12.6,   13.0,  999.0,   13.4,   14.6,   16.8,   15.7,   12.1,   11.8,   12.6,   14.1,   15.2,   15.4,   14.4,   14.7,   16.1,   16.6,   17.2,   17.8,   18.5,   19.8,   20.8,   19.7,   20.9,   22.8,   23.0,   19.2,   18.7,   17.5,   15.9,   15.0,   14.6,   14.8,   15.5,   14.7,   15.4,   16.9,   16.4,   17.3,   17.4,   15.0,   16.6,   17.3,   16.8,   18.6,   17.0,   16.5,   16.1,   18.2,  999.0,   13.6,   15.3,  999.0,  999.0,   15.0,   15.6,   15.9,   16.8,   15.9,  999.0,   18.8,   19.3,  999.0,  999.0,  999.0,  999.0,   16.4,   18.0,   19.2,   24.4,   26.6,  999.0,  999.0,  999.0,  999.0,  999.0,  999.0,  999.0,  999.0,   22.0,   22.6,   19.2,   15.8,   17.7,   18.9,   18.6,  999.0,  999.0,  999.0,  999.0,   13.0,   12.2,  999.0,   18.4,   18.3,   15.9,   11.0,  999.0,  999.0,  999.0,   10.3,    9.8,    9.4,    6.8,    3.4,    2.4,    0.8,  999.0,  999.0,  999.0,  999.0,  999.0,  999.0
2003/06/13 12:25,   12.5,   12.2,   10.2,   10.3,   10.9,   13.7,   14.3,   14.8,   14.0,   11.9,   11.3,   13.8,   16.9,   17.0,   12.8,   12.0,   12.8,   14.5,   14.7,   15.4,   14.2,   14.5,   16.8,   17.2,   17.0,   17.3,   17.9,   19.1,   19.8,   18.8,   19.6,   20.0,   20.1,   17.6,   16.8,   16.9,   15.2,   14.0,   14.1,   15.0,   16.1,   14.6,   15.3,   17.0,   16.3,   17.5,   18.3,   16.1,   17.8,   17.5,   17.5,   17.9,   19.2,   16.3,   17.6,   17.7,   13.3,   13.2,   14.5,  999.0,   15.0,   15.9,   16.0,   15.6,   16.9,   16.1,   15.5,   16.8,   17.9,   19.7,   13.6,  999.0,  999.0,   17.6,   18.7,   20.7,   23.7,   26.5,  999.0,  999.0,  999.0,  999.0,   19.1,  999.0,  999.0,  999.0,   23.7,   24.3,   22.8,   20.2,   19.0,   20.3,   19.6,   18.5,  999.0,  999.0,  999.0,   11.9,   13.2,   16.1,   17.1,   20.5,   12.3,   12.3,   10.5,  999.0,   11.9,   10.7,    9.3,    8.1,    6.0,  999.0,    2.0,    0.3,    0.9,  999.0,   -5.1,   -4.5,    1.1,  999.0
2003/06/13 12:35,   12.5,   11.7,   10.2,   10.5,   12.2,   13.4,   14.4,   15.7,   14.2,   11.1,   11.7,   14.5,   16.8,   16.7,   12.2,   11.6,   13.2,   14.3,   14.6,   15.0,   15.2,   15.4,   16.5,   17.9,   17.0,   17.9,   19.3,   18.6,   19.5,   19.1,   19.0,   18.2,   20.6,   18.6,   17.2,   16.7,   14.0,   13.8,   14.2,   14.8,   16.4,   15.8,   15.4,   17.3,   17.1,   17.9,   19.1,   17.1,   17.2,   16.6,   18.6,   16.8,   19.1,   16.5,   17.3,   17.7,   16.2,   13.4,  999.0,   14.5,  999.0,   13.9,   15.5,   16.3,  999.0,  999.0,   15.7,   16.1,   18.5,   18.6,   19.9,  999.0,  999.0,  999.0,  999.0,  999.0,  999.0,  999.0,  999.0,  999.0,  999.0,  999.0,  999.0,  999.0,  999.0,  999.0,   21.7,   23.1,   22.3,   20.5,  999.0,   21.0,  999.0,   20.9,  999.0,  999.0,  999.0,   10.4,   11.7,   13.1,   18.1,   19.5,   15.3,   11.8,   10.2,  999.0,   12.6,   11.9,    9.9,    8.3,    5.3,  999.0,  999.0,   -2.0,  999.0,  999.0,   -6.2,   -5.3,  999.0,  999.0
2003/06/13 12:45,   11.5,   11.4,   10.9,   10.7,   12.0,   12.6,   14.4,   15.0,   14.4,   11.0,   11.6,   13.7,   15.7,   16.6,   13.4,   13.8,   13.8,   13.9,   14.5,   14.5,   14.3,   15.3,   17.7,   17.4,   17.5,   18.6,   19.1,   18.6,   18.1,   18.5,   19.0,   18.8,   21.0,   21.7,   18.2,   17.2,   16.7,   15.2,   14.7,   15.9,   16.6,   14.8,   15.4,   16.9,   15.8,   17.3,   16.8,   15.2,   16.4,   17.1,   17.3,   17.7,   16.2,   17.1,   16.3,   17.8,   14.1,   14.0,   13.6,   13.4,   14.0,   15.0,   14.0,   14.4,  999.0,  999.0,   16.0,   17.2,   17.9,   18.9,  999.0,  999.0,  999.0,  999.0,   21.1,   20.5,   21.7,   24.6,   27.4,   24.6,  999.0,  999.0,   20.1,   22.0,  999.0,  999.0,   22.9,   25.9,   23.4,   22.5,   19.8,   21.8,   21.7,   22.6,  999.0,   13.6,   12.4,   11.1,   45.2,  999.0,   17.1,   19.7,   18.0,   11.8,   10.8,   13.3,   12.3,  999.0,    9.3,    9.0,    5.5,    1.8,    1.1,   -0.6,    1.1,   -0.2,  999.0,  999.0,    1.5,  999.0
2003/06/13 12:55,   10.7,   10.2,   10.7,   11.9,   12.4,   13.7,   15.8,   14.8,   14.3,   10.8,   11.1,   11.6,   15.6,   16.4,   14.8,   14.7,   15.5,   15.8,   15.8,   15.9,   15.4,   16.3,   18.2,   17.9,   18.2,   18.1,   17.7,   17.5,   17.4,   16.5,   16.5,   17.4,   19.4,   20.5,   18.9,   16.3,   15.1,   15.1,   15.2,   15.6,   16.5,   16.3,   15.7,   17.0,   15.7,   16.8,   17.2,   15.1,   16.8,   18.0,   17.9,   18.0,   16.1,   17.1,   16.9,   18.0,   15.4,   16.7,   15.8,   14.6,   14.6,   14.9,   15.2,   15.8,  999.0,   15.4,   17.3,   17.8,   18.0,   18.8,   19.0,  999.0,   19.8,  999.0,  999.0,   21.6,   23.0,   25.4,   27.7,   25.4,  999.0,  999.0,   20.0,   20.5,  999.0,   22.9,   24.4,   25.9,   24.7,   23.8,   20.4,   21.8,   22.6,  999.0,  999.0,  999.0,   14.3,  999.0,   11.4,   13.5,  999.0,   19.4,   15.3,   11.5,   10.7,  999.0,  999.0,   11.2,    9.9,    9.4,    6.6,    1.5,    2.0,    1.5,    0.6,  999.0,  999.0,  999.0,    1.3,  999.0
2003/06/13 13:05,   10.0,   10.2,    9.9,   12.0,   12.3,   12.9,   15.4,   15.4,   14.2,   12.2,   12.1,   12.2,   15.1,   15.3,   15.6,   15.4,   15.6,   15.5,   15.7,   16.0,   16.3,   18.3,   18.6,   18.6,   17.4,   17.0,   17.3,   17.7,   18.8,   19.2,   19.3,   18.4,   18.8,   20.3,   20.8,   19.0,   16.3,   15.2,   16.0,   15.6,   15.9,   16.1,   15.6,   16.3,   16.2,   16.8,   17.2,   15.9,   17.2,   18.1,   18.7,   19.0,   17.0,   18.4,   17.8,   19.4,   17.1,   17.5,  999.0,  999.0,   16.7,   17.5,  999.0,  999.0,  999.0,   20.1,   18.4,   21.6,   21.3,   21.0,  999.0,  999.0,  999.0,  999.0,  999.0,  999.0,   24.2,   26.3,   26.7,  999.0,  999.0,  999.0,  999.0,  999.0,  999.0,  999.0,  999.0,   26.0,   24.2,   22.4,   20.5,   20.9,   21.8,  999.0,  999.0,  999.0,  999.0,  999.0,  999.0,  999.0,  999.0,  999.0,  999.0,  999.0,   10.2,  999.0,  999.0,    9.1,    9.6,    9.5,    5.3,  999.0,    0.8,    0.4,    0.6,   -1.0,   -2.2,  999.0,  999.0,  999.0
2003/06/13 13:15,    9.4,    9.5,    9.3,   11.4,   12.3,   13.8,   15.1,   16.1,   14.0,   12.6,   11.4,   12.0,   13.9,   14.0,   15.1,   14.9,   14.3,   15.0,   14.3,   15.0,   15.2,   16.9,   17.3,   16.9,   17.3,   16.3,   16.7,   17.2,   17.5,   17.3,   18.1,   18.3,   18.0,   19.0,   20.1,   18.3,   16.3,   15.3,   15.1,   15.0,   14.1,   14.4,   14.5,   15.4,   14.6,   15.0,   16.3,   15.7,   17.3,   17.1,   18.2,   16.6,   17.7,   18.5,   17.6,   19.2,   16.3,   16.7,   15.3,   16.6,   16.9,   17.6,  999.0,   16.1,   18.8,   16.7,   18.3,   19.2,   20.3,   18.7,  999.0,  999.0,   20.0,   23.2,   23.5,   21.8,   24.1,   26.6,   27.3,  999.0,  999.0,   20.0,   20.6,   21.3,  999.0,  999.0,   23.7,   26.4,   24.9,   22.9,   21.1,   22.6,   20.0,   20.4,   18.3,   18.8,   14.4,   12.8,   10.8,   11.6,   13.9,   16.7,   18.3,   11.1,    9.8,   11.1,   11.0,    9.8,   10.1,    7.7,    4.2,    1.0,    1.0,   -0.7,    0.8,    0.6,  999.0,  999.0,  999.0,  999.0
2003/06/13 13:25,    9.2,    9.0,    9.1,   10.7,   11.8,   12.4,   14.3,   14.3,   14.3,   12.7,   12.0,   12.3,   12.8,   13.5,   14.1,   14.9,   15.0,   14.3,   14.6,   14.7,   14.9,   16.8,   17.4,   16.9,   16.8,   17.3,   16.9,   16.9,   17.2,   16.3,   17.3,   17.5,   17.6,   18.2,   19.3,   17.0,   16.6,   16.0,   14.1,   14.2,   14.9,   14.3,   15.1,   15.4,   15.6,   15.7,   16.2,   16.3,   17.4,   17.4,   17.2,   16.3,   15.5,   17.8,   16.4,   18.1,   16.0,   16.2,   16.0,   14.5,   16.8,   15.0,  999.0,   16.7,   16.7,  999.0,  999.0,   18.8,   19.2,   19.8,   18.9,  999.0,   19.6,   22.1,   23.1,   22.0,   25.4,   27.2,   27.0,  999.0,  999.0,   20.4,   20.1,   21.3,  999.0,   23.4,   24.3,   24.7,   24.4,   23.8,   21.9,   23.0,   20.7,   20.4,  999.0,  999.0,   12.2,  999.0,    9.9,   11.3,   13.3,   16.4,   19.1,   10.7,   10.4,   12.2,  999.0,   10.4,    9.5,    7.7,    5.3,    1.8,    0.9,    0.3,    0.4,    1.1,  999.0,  999.0,   -1.6,  999.0
2003/06/13 13:35,    9.4,    9.2,    8.9,    9.3,    9.7,   11.0,   13.7,   13.6,   13.7,   13.3,   12.7,   12.6,   13.3,   15.1,   14.8,   15.7,   15.7,   14.2,   15.4,   15.3,   16.2,   16.4,   18.3,   17.6,   17.5,   16.8,   17.3,   16.9,   16.3,   16.1,   17.0,   16.4,   17.6,   17.4,   18.8,   16.7,   15.5,   16.1,   14.8,   14.3,   15.2,   14.4,   14.7,   16.0,   16.8,   17.2,   16.3,   16.6,   18.3,   17.6,   18.0,   17.4,   17.6,   18.0,   18.1,   19.2,   15.9,   15.9,   16.9,   16.9,   15.2,   16.5,   15.7,   17.1,   17.8,  999.0,   16.3,   17.5,   19.1,   18.0,   20.2,   19.8,   20.8,   22.7,   19.7,   22.7,   25.8,   28.6,  999.0,  999.0,  999.0,   19.3,   20.8,   21.7,  999.0,  999.0,  999.0,   24.1,   23.9,   22.0,   21.3,   21.1,   21.3,   22.1,  999.0,   15.6,   12.4,   11.6,   10.6,   11.8,   12.8,   15.8,   17.4,   11.4,   10.2,   11.1,   11.1,    9.3,    8.9,    6.7,    4.4,  999.0,  999.0,    0.3,    0.3,  999.0,   -1.1,  999.0,  999.0,  999.0
2003/06/13 13:45,    8.5,    8.9,    9.8,   12.1,   13.4,   13.9,   14.5,   15.0,   14.6,   14.0,   14.2,   13.9,   14.0,   14.2,   14.9,   16.3,   16.1,   15.0,   15.4,   15.5,   16.7,   17.6,   18.3,   17.5,   17.5,   16.0,   16.5,   17.6,   15.2,   16.1,   16.5,   16.3,   16.8,   16.5,   18.1,   18.3,   16.8,   16.6,   15.1,   14.2,   15.1,   15.3,   15.2,   16.1,   17.5,   18.5,  999.0,   16.3,   17.3,   16.5,   17.5,   16.7,  999.0,  999.0,  999.0,  999.0,  999.0,   14.8,   14.5,   15.1,   13.0,   15.0,   14.9,   15.8,  999.0,  999.0,  999.0,   16.6,   17.6,   18.3,   18.4,   19.6,   21.2,   23.3,   21.0,   22.8,   25.3,   28.9,   27.1,  999.0,  999.0,   19.3,   20.7,   24.4,  999.0,   21.4,   25.9,   25.1,   25.9,   19.0,   22.7,   21.2,   22.6,   23.0,  999.0,   11.9,   12.0,   12.4,    8.8,  999.0,   12.8,   15.9,   18.1,   11.8,   10.5,   10.9,   10.3,   10.6,    7.8,    6.5,    5.0,  999.0,  999.0,   -0.0,   -0.1,    1.6,  999.0,   -1.2,   -2.3,   -3.9
2003/06/13 13:55,    9.3,   10.0,   11.5,   11.6,   11.5,   13.5,   15.5,   15.0,   15.3,   14.1,   14.5,   14.2,   14.7,   15.1,   15.4,   16.7,   16.3,   15.5,   16.0,   15.7,   16.7,   17.7,   18.2,   17.7,   18.3,   16.9,   16.2,   16.9,   15.5,   16.6,   17.5,   17.8,   17.7,   17.7,   19.6,   20.9,   17.9,   18.6,   16.4,   16.7,   17.3,   15.8,   16.1,   17.7,   19.2,   18.7,   18.3,   16.8,   17.6,   18.1,   17.1,   16.7,   18.5,   18.2,   18.3,   16.4,   16.4,   14.9,   14.6,   15.0,   13.7,   13.8,   14.8,   16.3,   15.1,  999.0,   15.7,   17.3,   17.9,  999.0,   18.1,   20.2,   22.3,   21.0,   21.6,   22.9,   25.9,   27.5,  999.0,  999.0,  999.0,   19.3,   20.7,   20.6,  999.0,   21.1,   20.2,   23.3,   24.9,   21.0,   21.0,   20.8,   21.5,   22.0,  999.0,   12.6,   11.4,   12.1,   11.4,   12.0,   14.0,   17.6,   17.5,   13.6,   11.8,   11.2,   11.6,    9.8,    8.7,    5.9,    3.8,  999.0,    0.8,   -1.4,   -1.4,  999.0,  999.0,   -2.3,  999.0,  999.0
2003/06/13 14:05,    8.9,    9.4,   11.5,   13.5,   13.8,   14.3,   15.3,   14.9,   15.3,   14.7,   15.6,   16.3,   15.9,   15.3,   15.1,   17.0,   17.1,   15.7,   15.6,   15.4,   14.9,   15.8,   16.4,   16.3,   16.1,   16.6,   15.2,   15.1,   13.7,   14.4,   15.1,   16.2,   16.3,   15.7,   17.5,   18.2,   18.3,   17.1,   17.2,   17.1,   15.9,   15.1,   15.9,   17.3,   17.9,   17.4,   17.0,   17.0,   17.2,   17.1,   17.2,   17.5,   18.4,  999.0,   17.3,   17.0,   16.8,   15.2,   15.0,   13.6,  999.0,   13.6,   14.9,   16.8,   16.7,   16.4,   16.9,   17.9,   18.3,  999.0,   18.9,   20.6,   24.1,  999.0,   20.3,   22.3,   24.5,   26.2,   29.0,  999.0,  999.0,   18.6,   18.7,   19.2,  999.0,  999.0,   19.0,   21.9,   22.8,   19.5,   19.2,   20.2,   20.0,  999.0,  999.0,   10.7,   11.8,  999.0,  999.0,   13.5,   15.5,   19.3,  999.0,   13.5,   13.2,   12.1,   12.2,    9.3,    9.1,    5.4,    4.7,  999.0,   -0.0,   -1.6,  999.0,  999.0,   -1.7,   -2.4,   -4.5,  999.0
2003/06/13 14:15,    7.3,    8.0,    9.3,   11.4,   11.8,   13.1,   15.0,   15.2,   15.2,   14.5,   15.2,   15.8,   15.1,   15.3,   15.1,   15.6,   17.3,   16.0,   14.7,   15.8,   14.7,   14.7,   16.2,   16.0,   16.2,   15.6,   15.7,   14.7,   13.6,   14.3,   15.1,   16.0,   15.8,   15.0,   16.8,   17.9,   18.5,   16.3,   17.0,   16.6,   15.3,   14.9,   16.7,   18.1,   17.4,   17.9,   17.8,   18.2,   17.7,   17.4,   18.0,   19.2,   20.8,  999.0,   18.6,   18.0,   17.4,   15.4,   16.8,   15.5,   14.3,   16.5,   16.6,  999.0,  999.0,  999.0,   18.6,   18.3,  999.0,  999.0,   17.9,   20.7,   25.3,  999.0,  999.0,   22.5,   25.3,   25.7,  999.0,  999.0,  999.0,  999.0,  999.0,  999.0,  999.0,  999.0,   21.5,   22.4,   25.2,  999.0,   19.6,   19.9,  999.0,  999.0,  999.0,  999.0,  999.0,  999.0,  999.0,  999.0,  999.0,   19.1,  999.0,   12.6,   12.9,   11.4,  999.0,    7.5,    7.5,    6.4,    3.1,    0.4,    0.1,   -1.3,    0.0,    0.0,  999.0,   -1.5,  999.0,   -1.3
2003/06/13 14:25,    8.2,    9.4,   10.0,   11.0,   12.0,   12.7,   13.8,   14.8,   14.4,   14.5,   14.0,   14.9,   14.5,   14.9,   14.4,   15.4,   16.2,   15.2,   15.3,   15.2,   15.5,   15.7,   16.4,   15.9,   16.7,   16.3,   16.3,   14.9,   14.7,   15.4,   16.3,   16.3,   14.9,   15.0,   16.0,   17.9,   19.0,   17.4,   17.0,   17.4,   15.6,   15.0,   17.5,   18.4,   18.4,   19.5,   17.2,   18.3,   17.6,   17.5,   17.9,   18.6,   20.9,   19.6,   18.5,   18.4,   18.8,   17.3,   17.0,   17.6,   17.8,   19.3,   18.0,  999.0,   16.2,   17.4,   18.5,   19.2,   20.1,   20.5,   21.8,   22.5,   24.6,   25.1,   21.5,   24.5,   25.7,   26.3,   27.8,  999.0,  999.0,  999.0,   19.2,   17.6,  999.0,  999.0,  999.0,   22.7,   22.4,   20.6,   19.5,   20.3,   19.5,  999.0,  999.0,   13.4,   12.6,   13.1,   12.6,   15.5,   17.8,   18.7,  999.0,   12.4,   11.3,   10.8,   10.9,    9.1,    6.4,    3.9,    3.2,  999.0,  999.0,  999.0,  999.0,  999.0,  999.0,   -1.4,  999.0,  999.0
2003/06/13 14:35,    8.9,    9.2,    9.2,    9.9,    9.7,    9.5,   12.5,   13.9,   13.6,   14.4,   15.1,   15.2,   14.2,   14.6,   15.6,   17.0,   17.4,   16.4,   17.5,   15.9,   16.6,   17.0,   18.1,   18.0,   18.1,   18.3,   17.8,   16.6,   16.6,   17.4,   18.2,   17.1,   16.9,   17.2,   18.8,   20.6,   21.4,   19.7,   19.0,   17.6,   15.4,   16.0,   18.5,   19.5,   17.6,   19.2,   19.6,   18.0,   17.7,   17.4,   17.8,   18.5,   18.9,   20.3,   18.0,   18.4,   18.4,   17.4,   17.5,   17.9,   18.5,   16.9,  999.0,   17.7,   18.0,   17.9,   19.5,   20.5,   20.5,   22.7,   22.6,   23.6,   22.9,   21.7,   24.0,   26.0,   26.3,   25.9,   28.6,  999.0,  999.0,   18.9,   20.1,   18.0,  999.0,  999.0,  999.0,   20.5,  999.0,   18.7,   18.3,   17.6,   18.1,   19.6,  999.0,   14.4,   12.3,   12.2,   13.5,   15.4,   18.5,   19.9,  999.0,   12.0,   12.5,   12.6,  999.0,    8.9,    6.4,    3.5,    4.4,   -1.4,   -0.5,   -2.0,   -0.3,  999.0,   -1.8,   -1.8,   -2.9,   -3.2
2003/06/13 14:45,    9.5,    9.9,   10.3,   11.0,   11.4,   10.6,   11.9,   13.0,   13.9,   14.6,   15.7,   15.8,   14.8,   14.0,   15.5,   16.4,   16.4,   17.0,   18.9,   16.9,   16.6,   16.6,   17.5,   17.8,   17.3,   17.2,   17.5,   16.1,   15.1,   15.7,   16.5,   16.8,   15.6,   16.0,   18.2,   20.1,   21.0,   19.7,   19.0,   17.0,   16.5,   18.7,   20.1,   20.3,   19.9,   21.8,   19.9,   20.2,   18.7,   19.6,   19.6,   20.7,   21.2,   20.2,   21.2,   20.1,   20.8,   20.7,   22.0,   19.1,  999.0,   17.7,   16.5,   17.6,   18.7,   19.6,  999.0,  999.0,   20.5,   22.5,   22.8,   20.0,   22.7,   24.9,   26.8,   28.5,   23.1,   26.1,  999.0,  999.0,  999.0,   19.9,  999.0,  999.0,  999.0,  999.0,  999.0,   20.8,   15.5,   18.1,   16.5,   14.8,   15.9,   17.2,  999.0,   11.7,   12.4,   11.2,   12.7,   16.1,   18.0,   20.5,   19.1,   12.7,   13.8,   11.4,   10.0,    8.5,    9.2,    5.0,    4.6,   -0.3,   -0.3,  999.0,  999.0,  999.0,  999.0,   -1.7,   -3.6,   -3.3
2003/06/13 14:55,    9.4,   10.2,   11.1,   12.4,   11.1,   10.1,   10.4,   11.6,   13.0,   14.4,   15.6,   16.0,   14.7,   14.6,   13.7,   16.1,   15.7,   17.1,   18.4,   17.0,   16.1,   16.7,   17.3,   18.0,   17.2,   16.6,   16.6,   14.9,   14.4,   14.4,   15.2,   16.0,   14.2,   13.9,   15.8,   17.5,   18.1,   17.4,   17.0,   14.9,   15.6,   17.6,   18.5,   18.5,   18.9,   18.9,   19.0,   19.4,   19.1,   19.5,   19.6,   21.6,   23.1,   23.1,   24.2,   21.2,   23.1,   21.6,   19.3,  999.0,   17.5,   19.1,   19.5,   19.5,  999.0,   19.3,   20.3,   20.1,   20.6,   22.3,   20.5,   20.5,   23.5,   25.2,   24.1,   23.7,   24.6,  999.0,  999.0,  999.0,  999.0,   18.3,  999.0,  999.0,  999.0,  999.0,  999.0,  999.0,  999.0,   18.0,  999.0,   14.2,   16.2,   17.5,  999.0,   12.5,   13.2,   12.4,   12.8,   16.0,   17.9,   19.1,   18.1,   11.7,   12.8,   11.9,    2.2,    7.3,    6.0,    4.2,    3.1,   -0.9,   -1.0,   -0.4,  999.0,  999.0,  999.0,   -2.4,   -4.9,  999.0
2003/06/13 15:05,   10.5,    9.8,   10.2,   10.1,    9.5,   10.0,   11.1,   12.5,   13.9,   15.2,   17.1,   16.7,   16.6,   15.5,   16.4,   17.1,   16.4,   18.1,   18.9,   18.0,   17.8,   18.1,   19.0,   18.6,   18.0,   17.3,   17.2,   15.5,   15.9,   16.8,   17.5,   17.5,   15.6,   16.7,   18.4,   20.3,   20.2,   19.3,   18.4,   17.5,   19.1,   20.3,   20.6,   20.3,   20.8,   22.0,   19.9,   20.5,   21.1,   20.3,   21.5,   22.1,   23.1,   23.0,   24.6,   25.6,   23.4,   24.2,   20.3,   18.4,   18.8,   20.9,   19.5,  999.0,  999.0,   19.2,   22.4,   21.7,  999.0,   21.1,  999.0,  999.0,   21.5,   22.6,   23.2,   22.9,   22.5,  999.0,  999.0,  999.0,   20.1,  999.0,  999.0,   17.1,  999.0,  999.0,  999.0,   17.5,   19.6,  999.0,   19.6,   15.8,   18.4,   18.4,  999.0,  999.0,   13.1,   11.9,   13.5,   14.5,   17.7,   17.6,   14.3,   13.2,   11.7,    8.9,    8.8,    7.4,    7.0,    3.8,    3.0,  999.0,  999.0,   -1.7,  999.0,  999.0,  999.0,   -1.7,   -3.8,   -5.0
2003/06/13 15:15,   10.2,   10.5,    9.4,    8.9,    9.4,   11.2,   10.8,    9.5,   12.2,   14.1,   16.7,   16.7,   16.8,   15.5,   14.4,   14.9,   14.3,   15.9,   17.4,   17.6,   15.6,   15.5,   16.9,   16.4,   15.7,   15.5,   15.1,   13.8,   14.1,   15.3,   15.8,   16.3,   14.1,   15.3,   16.7,   17.7,   19.7,   18.3,   17.4,   16.6,   18.3,   18.5,   18.8,   19.3,   19.9,   19.9,   18.5,   19.0,   19.4,   19.7,   20.2,   21.6,   22.3,   22.8,   21.1,   22.9,   21.0,   22.5,   19.7,   18.9,   19.2,  999.0,  999.0,  999.0,   20.1,   21.4,   22.2,   23.6,  999.0,   21.6,   23.5,  999.0,  999.0,   24.0,   24.8,   24.4,  999.0,  999.0,  999.0,  999.0,   19.0,   19.0,   19.0,  999.0,   23.0,   15.0,  999.0,  999.0,   21.3,   17.4,   22.6,   16.2,   17.7,   17.0,  999.0,   13.0,   14.0,   11.9,   12.2,   14.9,   17.5,   16.8,   16.2,  999.0,   12.1,   11.9,   10.2,    9.0,    8.4,    4.0,    3.3,   -0.6,  999.0,    0.2,    1.0,  999.0,   -0.9,  999.0,   -5.9,   -3.2
2003/06/13 15:25,    8.6,    9.1,   10.7,   11.2,   11.3,   11.5,   12.0,   11.7,   11.8,   14.9,   16.4,   16.8,   16.8,   14.4,   14.4,   14.3,   15.2,   16.8,   17.1,   17.7,   17.8,   17.0,   18.2,   16.3,   16.2,   15.5,   14.9,   14.0,   14.2,   15.4,   16.0,   15.2,   13.7,   14.2,   16.1,   17.2,   18.9,   18.6,   17.7,   17.3,   17.2,   19.0,   18.6,   19.0,   19.8,   19.1,   19.5,   19.3,   18.5,   17.5,   19.0,   19.7,   19.6,   21.0,   21.0,   21.9,   18.7,   18.4,   19.1,   19.3,   21.6,   23.9,  999.0,   20.3,   22.3,   24.5,   25.6,  999.0,   24.0,   26.0,   25.9,   25.8,   24.8,   25.5,   25.1,   26.3,   27.1,  999.0,  999.0,  999.0,   22.8,   20.7,   20.3,   17.8,  999.0,  999.0,  999.0,  999.0,   18.0,   18.2,   17.7,   17.5,   17.7,   18.1,  999.0,  999.0,   13.1,   13.6,   13.4,   15.4,   16.5,   16.6,   16.9,   11.2,   10.2,   11.6,    8.9,    8.5,    6.9,    2.5,    1.8,   -0.6,   -0.3,    0.9,    0.7,    1.0,  999.0,   -1.4,   -4.0,   -3.6
2003/06/13 15:35,  999.0,    9.9,   10.0,   12.1,   13.4,   15.1,   13.2,   12.6,   12.9,   15.1,   17.5,   17.8,   17.5,   15.1,   14.8,   14.5,   15.2,   17.2,   15.9,   16.9,   16.9,   15.8,   16.6,   15.6,   14.8,   15.2,   14.1,   14.6,   14.8,   15.1,   15.5,   13.4,   13.4,   14.2,   15.8,   17.0,   18.7,   19.8,   17.8,   17.4,   17.0,   18.4,   18.5,   18.1,   19.6,   19.5,   19.4,   18.1,   19.3,   19.1,   19.5,   20.7,   19.6,   22.1,   22.3,   22.1,   22.4,   17.5,   19.8,   21.3,   23.8,  999.0,  999.0,   21.0,   22.8,   23.8,   25.6,   26.4,  999.0,  999.0,  999.0,   25.5,   25.9,   25.5,   25.3,  999.0,  999.0,  999.0,  999.0,  999.0,  999.0,   21.1,   21.2,  999.0,  999.0,  999.0,  999.0,  999.0,   18.1,   18.3,  999.0,  999.0,   18.1,   17.3,   15.6,  999.0,   12.8,   10.8,   12.3,  999.0,   17.7,   16.7,  999.0,  999.0,   14.1,   12.2,   11.2,  999.0,    8.5,    2.3,    1.3,   -0.1,    0.7,  999.0,  999.0,    0.4,  999.0,   -3.3,  999.0,  999.0
2003/06/13 15:45,    8.9,    9.0,    9.0,   10.0,   10.3,   12.4,   12.2,   11.8,   13.6,   16.1,   16.8,   17.0,   16.0,   15.2,   14.5,   14.3,   15.5,   15.0,   16.6,   16.5,   17.3,   17.6,   17.8,   15.9,   15.6,   15.8,   16.0,   16.1,   16.7,   17.1,   15.1,   15.1,   16.7,   18.9,   20.2,   19.3,   20.3,   21.2,   19.3,   19.0,   17.4,   18.6,   17.5,   17.8,   19.1,   19.4,   18.9,   18.7,   18.9,   18.4,   18.2,   18.4,   20.2,   21.2,   21.6,   22.4,   19.5,   17.3,   19.1,   20.4,   22.5,  999.0,   20.4,  999.0,   22.5,   24.7,  999.0,  999.0,   25.7,   27.1,   25.3,   26.2,   29.7,   26.7,   28.3,  999.0,   29.3,  999.0,  999.0,  999.0,  999.0,   20.2,   20.9,   21.1,  999.0,  999.0,  999.0,  999.0,  999.0,  999.0,   17.4,   17.5,   19.3,   19.0,  999.0,   13.6,   13.7,   10.9,   12.7,   15.5,   17.0,  999.0,  999.0,   11.2,   13.5,   12.5,   12.6,   10.5,   10.4,    5.2,    1.1,   -1.6,  999.0,    0.2,    0.3,    0.5,  999.0,  999.0,   -3.1,  999.0
2003/06/13 15:55,   10.5,    9.8,    9.3,    9.9,   10.0,   11.5,   12.9,   11.8,   13.2,   15.5,   16.7,   18.9,   18.0,   16.9,   16.3,   16.3,   16.0,   17.1,   16.7,   16.7,   17.4,   18.1,   17.1,   16.1,   15.4,   15.3,   16.0,   16.3,   16.9,   15.5,   14.8,   15.2,   18.1,   20.5,   19.3,   20.4,   21.0,   20.8,   20.9,   19.3,   19.0,   20.0,   19.2,   19.8,   20.8,   19.8,   20.1,   19.6,   20.5,   18.1,   19.4,   20.5,   21.0,   22.5,   22.4,   24.0,   18.1,   17.3,   19.5,   22.1,   24.8,  999.0,   21.4,   22.9,   24.4,   25.8,   25.1,   25.9,  999.0,   26.6,   26.5,   30.0,   27.9,   29.4,   26.4,   29.0,  999.0,  999.0,  999.0,  999.0,  999.0,  999.0,   21.6,   20.7,  999.0,  999.0,  999.0,  999.0,  999.0,   17.6,   17.3,   18.5,   20.1,   18.8,   17.1,   11.7,   13.2,   12.2,  999.0,   15.4,   15.9,   15.6,   13.2,   11.2,   11.8,   10.8,   11.7,    9.0,    9.1,    2.8,    0.9,   -0.8,    0.7,    1.1,    2.0,    0.3,  999.0,  999.0,   -2.2,  999.0
